M I D A S
Marine Information and Data Acquisition System
Tripno 2001 of the Zeeleeuw from 2010-12-14 08:10:19 to 2010-12-14 15:06:46
Back to CruiseResearch ActivitiesStationsMapUnderway DataData graphs

EquipmentUnitsComment
TimeDGPSUTC
LatitudeDGPSDM.mWGS84
LongitudeDGPSDM.mWGS84
TemperatureSBE03/SBE38deg celciusITS90
ConductivitySBE21S/mITS90
SalinitySBE21 Practical Salinity Units
ChlorophylAChelsea fluorimeterg/lCalibrated in Aceton
Missing or incorrect values are displayed as -999
Sea surface data collected by the RV Zeeleeuw from 2010-12-14 07:22:28 to 2010-12-14 15:12:00
                                                                                    Next 1000 lines
Time Latitude Longitude Temperature Conductivity Salinity ChlorophylA
2010-12-14 07:22:38 51°13.662 2°55.959 12.3889 0.019916 0.110136 0.218274
2010-12-14 07:22:42 51°13.662 2°55.959 12.3697 0.019916 0.110136 0.218274
2010-12-14 07:22:48 51°13.662 2°55.959 12.3624 0.019916 0.110136 0.218274
2010-12-14 07:22:53 51°13.662 2°55.959 12.3779 0.019916 0.110135 0.218274
2010-12-14 07:22:58 51°13.662 2°55.959 12.3846 0.019916 0.110136 0.218274
2010-12-14 07:23:02 51°13.662 2°55.959 12.3879 0.019916 0.110136 0.253098
2010-12-14 07:23:07 51°13.662 2°55.96 12.3638 0.019916 0.110135 0.253098
2010-12-14 07:23:12 51°13.662 2°55.96 12.3689 0.019916 0.110133 0.253098
2010-12-14 07:23:18 51°13.662 2°55.959 12.3707 0.019916 0.110133 0.253098
2010-12-14 07:23:23 51°13.662 2°55.959 12.3768 0.019916 0.110131 0.253098
2010-12-14 07:23:27 51°13.662 2°55.959 12.3731 0.019916 0.110133 0.253098
2010-12-14 07:23:33 51°13.662 2°55.959 12.3773 0.019916 0.110131 0.218274
2010-12-14 07:23:38 51°13.662 2°55.959 12.3743 0.019916 0.110131 0.218274
2010-12-14 07:23:43 51°13.662 2°55.959 12.3703 0.019916 0.110133 0.218274
2010-12-14 07:23:48 51°13.662 2°55.959 12.3703 0.019916 0.11013 0.218274
2010-12-14 07:23:53 51°13.662 2°55.959 12.3704 0.019916 0.11013 0.218274
2010-12-14 07:23:58 51°13.662 2°55.959 12.3712 0.019916 0.110131 0.253098
2010-12-14 07:24:02 51°13.662 2°55.959 12.3688 0.019916 0.11013 0.253098
2010-12-14 07:24:08 51°13.662 2°55.959 12.3696 0.019916 0.110128 0.253098
2010-12-14 07:24:13 51°13.662 2°55.959 12.3701 0.019916 0.11013 0.253098
2010-12-14 07:24:18 51°13.662 2°55.959 12.37 0.019916 0.110128 0.253098
2010-12-14 07:24:22 51°13.662 2°55.959 12.3702 0.019916 0.110128 0.253098
2010-12-14 07:24:28 51°13.662 2°55.959 12.3685 0.019916 0.110126 0.218274
2010-12-14 07:24:33 51°13.662 2°55.959 12.368 0.019916 0.110126 0.218274
2010-12-14 07:24:38 51°13.662 2°55.959 12.3668 0.019916 0.110126 0.218274
2010-12-14 07:24:43 51°13.662 2°55.959 12.3669 0.019916 0.110126 0.218274
2010-12-14 07:24:48 51°13.662 2°55.959 12.3688 0.019916 0.110126 0.218274
2010-12-14 07:24:54 51°13.662 2°55.959 12.3703 0.019916 0.110125 0.218274
2010-12-14 07:24:58 51°13.662 2°55.959 12.3669 0.019916 0.110125 0.253098
2010-12-14 07:25:03 51°13.662 2°55.959 12.3631 0.019916 0.110125 0.253098
2010-12-14 07:25:09 51°13.662 2°55.959 12.3659 0.019916 0.110125 0.253098
2010-12-14 07:25:13 51°13.662 2°55.959 12.364 0.019916 0.110125 0.253098
2010-12-14 07:25:18 51°13.662 2°55.959 12.3642 0.019916 0.110123 0.218274
2010-12-14 07:25:24 51°13.662 2°55.959 12.3658 0.019916 0.110123 0.218274
2010-12-14 07:25:29 51°13.662 2°55.959 12.3608 0.019916 0.110123 0.218274
2010-12-14 07:25:33 51°13.662 2°55.959 12.3605 0.019916 0.110122 0.253098
2010-12-14 07:25:38 51°13.662 2°55.959 12.3552 0.019916 0.110122 0.218274
2010-12-14 07:25:43 51°13.662 2°55.96 12.3557 0.019916 0.110122 0.218274
2010-12-14 07:25:49 51°13.662 2°55.96 12.359 0.019916 0.110122 0.253098
2010-12-14 07:25:54 51°13.662 2°55.96 12.3606 0.019916 0.110122 0.253098
2010-12-14 07:25:58 51°13.662 2°55.96 12.3624 0.019916 0.11012 0.253098
2010-12-14 07:26:03 51°13.662 2°55.96 12.3627 0.019916 0.11012 0.218274
2010-12-14 07:26:09 51°13.662 2°55.96 12.3609 0.019916 0.110118 0.218274
2010-12-14 07:26:13 51°13.662 2°55.96 12.3559 0.019916 0.110118 0.253098
2010-12-14 07:26:18 51°13.662 2°55.96 12.355 0.019916 0.110118 0.253098
2010-12-14 07:26:23 51°13.662 2°55.96 12.3579 0.019916 0.110117 0.218274
2010-12-14 07:26:29 51°13.662 2°55.96 12.3648 0.019916 0.110117 0.218274
2010-12-14 07:26:34 51°13.662 2°55.96 12.3703 0.019916 0.110117 0.218274
2010-12-14 07:26:38 51°13.662 2°55.96 12.3704 0.019916 0.110115 0.218274
2010-12-14 07:26:43 51°13.662 2°55.96 12.3703 0.019916 0.110115 0.218274
2010-12-14 07:26:48 51°13.662 2°55.96 12.3669 0.019916 0.110115 0.218274
2010-12-14 07:26:53 51°13.662 2°55.96 12.3668 0.019916 0.110115 0.218274
2010-12-14 07:26:58 51°13.662 2°55.96 12.3607 0.019916 0.110115 0.253098
2010-12-14 07:27:03 51°13.662 2°55.96 12.3646 0.019916 0.110115 0.218274
2010-12-14 07:27:08 51°13.662 2°55.96 12.3647 0.019916 0.110113 0.253098
2010-12-14 07:27:13 51°13.662 2°55.96 12.3677 0.019916 0.110113 0.253098
2010-12-14 07:27:18 51°13.662 2°55.96 12.3677 0.019916 0.110113 0.218274
2010-12-14 07:27:23 51°13.662 2°55.96 12.3619 0.019916 0.110113 0.218274
2010-12-14 07:27:28 51°13.662 2°55.96 12.3627 0.019916 0.110112 0.253098
2010-12-14 07:27:33 51°13.662 2°55.96 12.3672 0.019916 0.110112 0.253098
2010-12-14 07:27:38 51°13.662 2°55.96 12.365 0.019916 0.11011 0.253098
2010-12-14 07:27:43 51°13.662 2°55.96 12.3686 0.019916 0.110112 0.218274
2010-12-14 07:27:49 51°13.662 2°55.96 12.3676 0.019916 0.11011 0.218274
2010-12-14 07:27:53 51°13.662 2°55.96 12.3658 0.019916 0.11011 0.218274
2010-12-14 07:27:58 51°13.662 2°55.96 12.3637 0.019916 0.11011 0.218274
2010-12-14 07:28:03 51°13.662 2°55.96 12.3633 0.019916 0.11011 0.253098
2010-12-14 07:28:08 51°13.662 2°55.96 12.3652 0.019916 0.11011 0.218274
2010-12-14 07:28:13 51°13.662 2°55.96 12.3594 0.019916 0.110108 0.218274
2010-12-14 07:28:18 51°13.662 2°55.96 12.3601 0.019916 0.110108 0.218274
2010-12-14 07:28:23 51°13.662 2°55.96 12.3625 0.019916 0.11011 0.253098
2010-12-14 07:28:28 51°13.662 2°55.96 12.3664 0.019916 0.110108 0.253098
2010-12-14 07:28:33 51°13.662 2°55.959 12.3634 0.019916 0.110108 0.253098
2010-12-14 07:28:38 51°13.661 2°55.961 12.3416 0.019916 0.110107 0.253098
2010-12-14 07:28:43 51°13.662 2°55.961 12.3546 0.019916 0.110105 0.218274
2010-12-14 07:28:48 51°13.662 2°55.961 12.3471 0.019916 0.110105 0.218274
2010-12-14 07:28:54 51°13.662 2°55.961 12.3558 0.019916 0.110107 0.218274
2010-12-14 07:28:58 51°13.662 2°55.961 12.3624 0.019916 0.110107 0.253098
2010-12-14 07:29:03 51°13.662 2°55.961 12.368 0.019916 0.110105 0.218274
2010-12-14 07:29:08 51°13.662 2°55.961 12.3714 0.019916 0.110105 0.218274
2010-12-14 07:29:13 51°13.662 2°55.961 12.3734 0.019916 0.110107 0.253098
2010-12-14 07:29:18 51°13.662 2°55.961 12.3712 0.019916 0.110105 0.253098
2010-12-14 07:29:22 51°13.662 2°55.961 12.3721 0.019916 0.110105 0.253098
2010-12-14 07:29:27 51°13.662 2°55.96 12.3638 0.019916 0.110104 0.253098
2010-12-14 07:29:33 51°13.662 2°55.96 12.3661 0.019916 0.110105 0.253098
2010-12-14 07:29:38 51°13.662 2°55.96 12.3634 0.019916 0.110104 0.253098
2010-12-14 07:29:44 51°13.662 2°55.96 12.3634 0.019916 0.110104 0.218274
2010-12-14 07:29:48 51°13.662 2°55.96 12.3643 0.019916 0.110104 0.218274
2010-12-14 07:29:54 51°13.662 2°55.96 12.3641 0.019916 0.110102 0.218274
2010-12-14 07:29:58 51°13.662 2°55.96 12.3747 0.019916 0.110102 0.253098
2010-12-14 07:30:03 51°13.662 2°55.96 12.3689 0.019916 0.110102 0.218274
2010-12-14 07:30:09 51°13.662 2°55.96 12.3668 0.019916 0.110102 0.218274
2010-12-14 07:30:13 51°13.662 2°55.96 12.3669 0.019916 0.110102 0.218274
2010-12-14 07:30:18 51°13.662 2°55.96 12.3657 0.019916 0.110102 0.218274
2010-12-14 07:30:24 51°13.662 2°55.96 12.3676 0.019916 0.1101 0.218274
2010-12-14 07:30:29 51°13.662 2°55.96 12.3678 0.019916 0.1101 0.253098
2010-12-14 07:30:34 51°13.662 2°55.96 12.3694 0.019916 0.1101 0.218274
2010-12-14 07:30:38 51°13.662 2°55.96 12.3701 0.019916 0.1101 0.218274
2010-12-14 07:30:43 51°13.662 2°55.96 12.3707 0.019916 0.110099 0.218274
2010-12-14 07:30:49 51°13.662 2°55.96 12.3702 0.019916 0.110097 0.218274
2010-12-14 07:30:54 51°13.662 2°55.96 12.3716 0.019916 0.110097 0.218274
2010-12-14 07:30:58 51°13.662 2°55.96 12.3676 0.019916 0.110097 0.218274
2010-12-14 07:31:03 51°13.662 2°55.96 12.3663 0.019916 0.110097 0.218274
2010-12-14 07:31:08 51°13.661 2°55.96 12.3692 0.019916 0.110097 0.218274
2010-12-14 07:31:14 51°13.661 2°55.96 12.3652 0.019916 0.110097 0.218274
2010-12-14 07:31:18 51°13.661 2°55.96 12.3658 0.019916 0.110097 0.218274
2010-12-14 07:31:23 51°13.661 2°55.96 12.3703 0.019916 0.110095 0.253098
2010-12-14 07:31:28 51°13.662 2°55.96 12.3743 0.019916 0.110095 0.253098
2010-12-14 07:31:33 51°13.662 2°55.96 12.3725 0.019916 0.110095 0.218274
2010-12-14 07:31:38 51°13.662 2°55.96 12.3754 0.019916 0.110094 0.253098
2010-12-14 07:31:43 51°13.662 2°55.96 12.3758 0.019916 0.110094 0.218274
2010-12-14 07:31:48 51°13.662 2°55.96 12.3729 0.019916 0.110094 0.218274
2010-12-14 07:31:53 51°13.662 2°55.96 12.3726 0.019916 0.110095 0.253098
2010-12-14 07:31:58 51°13.662 2°55.96 12.4048 0.019916 0.110094 0.218274
2010-12-14 07:32:03 51°13.662 2°55.96 12.4589 0.019916 0.110094 0.253098
2010-12-14 07:32:08 51°13.661 2°55.96 12.4837 0.019812 0.109528 0.218274
2010-12-14 07:32:13 51°13.661 2°55.96 12.4996 0.019812 0.109528 0.218274
2010-12-14 07:32:18 51°13.661 2°55.961 12.4921 0.019812 0.109528 0.218274
2010-12-14 07:32:22 51°13.662 2°55.961 12.4943 0.019812 0.109528 0.253098
2010-12-14 07:32:27 51°13.661 2°55.96 12.4841 0.019812 0.109528 0.218274
2010-12-14 07:32:32 51°13.661 2°55.96 12.4685 0.019812 0.109528 0.218274
2010-12-14 07:32:37 51°13.661 2°55.96 12.4667 0.019812 0.109528 0.218274
2010-12-14 07:32:42 51°13.661 2°55.96 12.46 0.019812 0.109529 0.253098
2010-12-14 07:32:47 51°13.661 2°55.96 12.4577 0.019812 0.109529 0.253098
2010-12-14 07:32:52 51°13.661 2°55.96 12.4597 0.019812 0.109529 0.253098
2010-12-14 07:32:56 51°13.661 2°55.96 12.4629 0.019812 0.109528 0.253098
2010-12-14 07:33:01 51°13.661 2°55.96 12.4669 0.019812 0.109526 0.218274
2010-12-14 07:33:06 51°13.661 2°55.96 12.4658 0.019812 0.109526 0.218274
2010-12-14 07:33:11 51°13.661 2°55.96 12.469 0.019812 0.109526 0.253098
2010-12-14 07:33:16 51°13.661 2°55.96 12.4668 0.019812 0.109526 0.253098
2010-12-14 07:33:21 51°13.661 2°55.96 12.4677 0.019812 0.109524 0.218274
2010-12-14 07:33:26 51°13.661 2°55.96 12.4607 0.019812 0.109526 0.218274
2010-12-14 07:33:30 51°13.661 2°55.96 12.4536 0.019812 0.109526 0.218274
2010-12-14 07:33:35 51°13.661 2°55.96 12.4453 0.019812 0.109523 0.218274
2010-12-14 07:33:40 51°13.661 2°55.96 12.4431 0.019812 0.109524 0.253098
2010-12-14 07:33:45 51°13.661 2°55.96 12.4411 0.019812 0.109524 0.253098
2010-12-14 07:33:50 51°13.661 2°55.96 12.4412 0.019812 0.109523 0.218274
2010-12-14 07:33:54 51°13.661 2°55.96 12.4407 0.019812 0.109521 0.218274
2010-12-14 07:34:00 51°13.661 2°55.96 12.4324 0.019812 0.109523 0.253098
2010-12-14 07:34:05 51°13.66 2°55.96 12.4313 0.019812 0.109523 0.218274
2010-12-14 07:34:10 51°13.66 2°55.96 12.4319 0.019812 0.109523 0.218274
2010-12-14 07:34:15 51°13.66 2°55.96 12.4285 0.019812 0.109521 0.218274
2010-12-14 07:34:20 51°13.66 2°55.96 12.4253 0.019812 0.109521 0.218274
2010-12-14 07:34:25 51°13.66 2°55.96 12.4263 0.019812 0.109521 0.218274
2010-12-14 07:34:30 51°13.66 2°55.96 12.4272 0.019812 0.109519 0.253098
2010-12-14 07:34:34 51°13.66 2°55.96 12.4272 0.019812 0.109521 0.253098
2010-12-14 07:34:40 51°13.66 2°55.96 12.4253 0.019812 0.109519 0.218274
2010-12-14 07:34:45 51°13.66 2°55.96 12.418 0.019812 0.109519 0.218274
2010-12-14 07:34:50 51°13.66 2°55.96 12.4185 0.019812 0.109518 0.218274
2010-12-14 07:34:54 51°13.661 2°55.96 12.4179 0.019812 0.109519 0.218274
2010-12-14 07:34:59 51°13.661 2°55.96 12.4195 0.019812 0.109518 0.218274
2010-12-14 07:35:05 51°13.661 2°55.96 12.421 0.019812 0.109519 0.218274
2010-12-14 07:35:10 51°13.661 2°55.96 12.4219 0.019812 0.109518 0.218274
2010-12-14 07:35:15 51°13.661 2°55.96 12.4248 0.019812 0.109518 0.218274
2010-12-14 07:35:19 51°13.661 2°55.96 12.425 0.019812 0.109518 0.253098
2010-12-14 07:35:25 51°13.661 2°55.96 12.4249 0.019812 0.109518 0.218274
2010-12-14 07:35:30 51°13.661 2°55.96 12.4253 0.019812 0.109516 0.218274
2010-12-14 07:35:35 51°13.661 2°55.96 12.4236 0.019812 0.109516 0.218274
2010-12-14 07:35:40 51°13.661 2°55.96 12.4236 0.019812 0.109516 0.218274
2010-12-14 07:35:45 51°13.661 2°55.96 12.426 0.019812 0.109516 0.218274
2010-12-14 07:35:50 51°13.661 2°55.96 12.4246 0.019812 0.109516 0.218274
2010-12-14 07:35:55 51°13.661 2°55.96 12.4256 0.019812 0.109515 0.218274
2010-12-14 07:35:59 51°13.661 2°55.96 12.4279 0.019812 0.109511 0.253098
2010-12-14 07:36:05 51°13.661 2°55.96 12.4263 0.019812 0.109511 0.218274
2010-12-14 07:36:10 51°13.661 2°55.96 12.4296 0.019812 0.109513 0.253098
2010-12-14 07:36:15 51°13.661 2°55.96 12.4276 0.019812 0.109513 0.253098
2010-12-14 07:36:20 51°13.661 2°55.96 12.4287 0.019812 0.109513 0.253098
2010-12-14 07:36:25 51°13.661 2°55.96 12.4288 0.019812 0.109515 0.253098
2010-12-14 07:36:30 51°13.661 2°55.96 12.4299 0.019812 0.109513 0.253098
2010-12-14 07:36:34 51°13.661 2°55.96 12.4276 0.019812 0.109511 0.218274
2010-12-14 07:36:40 51°13.661 2°55.96 12.425 0.019812 0.109511 0.218274
2010-12-14 07:36:45 51°13.661 2°55.96 12.4236 0.019812 0.109511 0.218274
2010-12-14 07:36:50 51°13.661 2°55.96 12.4232 0.019812 0.109511 0.218274
2010-12-14 07:36:55 51°13.661 2°55.96 12.4241 0.019812 0.109513 0.218274
2010-12-14 07:37:00 51°13.661 2°55.96 12.4222 0.019812 0.109511 0.218274
2010-12-14 07:37:05 51°13.661 2°55.96 12.4221 0.019812 0.109511 0.218274
2010-12-14 07:37:10 51°13.661 2°55.96 12.4218 0.019812 0.109511 0.218274
2010-12-14 07:37:14 51°13.661 2°55.96 12.4227 0.019812 0.109511 0.218274
2010-12-14 07:37:20 51°13.661 2°55.96 12.4237 0.019812 0.109511 0.218274
2010-12-14 07:37:25 51°13.661 2°55.96 12.4236 0.019812 0.10951 0.218274
2010-12-14 07:37:30 51°13.661 2°55.96 12.418 0.019812 0.10951 0.218274
2010-12-14 07:37:35 51°13.661 2°55.96 12.4171 0.019812 0.109508 0.218274
2010-12-14 07:37:39 51°13.661 2°55.96 12.4153 0.019812 0.10951 0.218274
2010-12-14 07:37:45 51°13.661 2°55.96 12.4132 0.019812 0.109508 0.218274
2010-12-14 07:37:50 51°13.661 2°55.96 12.4125 0.019812 0.109508 0.218274
2010-12-14 07:37:54 51°13.661 2°55.96 12.4052 0.019812 0.109506 0.218274
2010-12-14 07:38:00 51°13.661 2°55.96 12.4061 0.019812 0.109508 0.253098
2010-12-14 07:38:05 51°13.661 2°55.96 12.4092 0.019812 0.109508 0.253098
2010-12-14 07:38:10 51°13.661 2°55.96 12.4104 0.019812 0.109508 0.218274
2010-12-14 07:38:15 51°13.661 2°55.96 12.4146 0.019812 0.109506 0.218274
2010-12-14 07:38:19 51°13.661 2°55.96 12.4166 0.019812 0.109506 0.218274
2010-12-14 07:38:25 51°13.661 2°55.96 12.417 0.019812 0.109508 0.218274
2010-12-14 07:38:30 51°13.661 2°55.96 12.4166 0.019812 0.109506 0.253098
2010-12-14 07:38:35 51°13.661 2°55.96 12.408 0.019812 0.109506 0.218274
2010-12-14 07:38:40 51°13.661 2°55.96 12.4064 0.019812 0.109503 0.218274
2010-12-14 07:38:45 51°13.661 2°55.96 12.409 0.019812 0.109503 0.218274
2010-12-14 07:38:50 51°13.661 2°55.96 12.4127 0.019812 0.109505 0.218274
2010-12-14 07:38:55 51°13.661 2°55.96 12.4192 0.019812 0.109505 0.218274
2010-12-14 07:39:00 51°13.661 2°55.96 12.4232 0.019812 0.109505 0.253098
2010-12-14 07:39:05 51°13.661 2°55.96 12.4255 0.019812 0.109505 0.218274
2010-12-14 07:39:10 51°13.661 2°55.96 12.4247 0.019812 0.109505 0.253098
2010-12-14 07:39:14 51°13.661 2°55.96 12.4216 0.019812 0.109505 0.253098
2010-12-14 07:39:20 51°13.661 2°55.96 12.4209 0.019812 0.109505 0.218274
2010-12-14 07:39:25 51°13.661 2°55.96 12.4203 0.019812 0.109503 0.218274
2010-12-14 07:39:30 51°13.661 2°55.96 12.4184 0.019812 0.109503 0.218274
2010-12-14 07:39:34 51°13.661 2°55.96 12.4185 0.019812 0.109503 0.218274
2010-12-14 07:39:40 51°13.661 2°55.96 12.4179 0.019812 0.109503 0.218274
2010-12-14 07:39:45 51°13.661 2°55.96 12.4193 0.019812 0.109505 0.218274
2010-12-14 07:39:50 51°13.661 2°55.96 12.4175 0.019812 0.109505 0.218274
2010-12-14 07:39:55 51°13.661 2°55.96 12.4214 0.019812 0.109503 0.218274
2010-12-14 07:39:59 51°13.661 2°55.96 12.4211 0.019812 0.109502 0.253098
2010-12-14 07:40:05 51°13.661 2°55.96 12.422 0.019812 0.109502 0.218274
2010-12-14 07:40:10 51°13.661 2°55.96 12.4234 0.019812 0.109503 0.218274
2010-12-14 07:40:15 51°13.661 2°55.96 12.4246 0.019812 0.109503 0.218274
2010-12-14 07:40:20 51°13.661 2°55.961 12.4229 0.019812 0.109502 0.253098
2010-12-14 07:40:25 51°13.661 2°55.961 12.4231 0.019812 0.1095 0.218274
2010-12-14 07:40:30 51°13.661 2°55.961 12.4254 0.019812 0.109502 0.253098
2010-12-14 07:40:34 51°13.661 2°55.961 12.4242 0.019812 0.1095 0.253098
2010-12-14 07:40:40 51°13.661 2°55.961 12.4238 0.019812 0.1095 0.253098
2010-12-14 07:40:45 51°13.661 2°55.961 12.4241 0.019812 0.1095 0.253098
2010-12-14 07:40:50 51°13.661 2°55.961 12.4262 0.019812 0.1095 0.218274
2010-12-14 07:40:55 51°13.661 2°55.961 12.4258 0.019812 0.1095 0.218274
2010-12-14 07:41:00 51°13.661 2°55.961 12.4271 0.019812 0.1095 0.253098
2010-12-14 07:41:05 51°13.66 2°55.96 12.4275 0.019812 0.1095 0.218274
2010-12-14 07:41:10 51°13.66 2°55.96 12.4297 0.019812 0.109498 0.218274
2010-12-14 07:41:14 51°13.66 2°55.96 12.4315 0.019812 0.109498 0.218274
2010-12-14 07:41:20 51°13.66 2°55.959 12.4354 0.019812 0.109498 0.218274
2010-12-14 07:41:25 51°13.66 2°55.959 12.4391 0.019812 0.109498 0.218274
2010-12-14 07:41:30 51°13.66 2°55.959 12.4437 0.019812 0.109498 0.218274
2010-12-14 07:41:34 51°13.66 2°55.959 12.448 0.019812 0.1095 0.218274
2010-12-14 07:41:40 51°13.66 2°55.959 12.4458 0.019812 0.109498 0.218274
2010-12-14 07:41:45 51°13.659 2°55.959 12.4453 0.019812 0.109498 0.218274
2010-12-14 07:41:50 51°13.659 2°55.959 12.4376 0.019812 0.109498 0.218274
2010-12-14 07:41:55 51°13.659 2°55.959 12.4317 0.019812 0.109498 0.218274
2010-12-14 07:41:59 51°13.659 2°55.959 12.4314 0.019812 0.109498 0.218274
2010-12-14 07:42:05 51°13.659 2°55.959 12.4314 0.019812 0.109498 0.218274
2010-12-14 07:42:10 51°13.659 2°55.959 12.43 0.019812 0.109497 0.253098
2010-12-14 07:42:15 51°13.659 2°55.959 12.4289 0.019812 0.109497 0.218274
2010-12-14 07:42:19 51°13.659 2°55.959 12.4268 0.019812 0.109497 0.218274
2010-12-14 07:42:25 51°13.659 2°55.96 12.4265 0.019812 0.109498 0.253098
2010-12-14 07:42:30 51°13.66 2°55.96 12.4294 0.019812 0.109497 0.253098
2010-12-14 07:42:35 51°13.66 2°55.96 12.4306 0.019812 0.109497 0.218274
2010-12-14 07:42:40 51°13.66 2°55.96 12.4288 0.019812 0.109497 0.218274
2010-12-14 07:42:45 51°13.66 2°55.96 12.4312 0.019812 0.109497 0.218274
2010-12-14 07:42:50 51°13.66 2°55.96 12.4324 0.019812 0.109498 0.218274
2010-12-14 07:42:55 51°13.66 2°55.96 12.4337 0.019812 0.109497 0.218274
2010-12-14 07:43:00 51°13.66 2°55.96 12.4348 0.019812 0.109497 0.218274
2010-12-14 07:43:05 51°13.66 2°55.96 12.4336 0.019812 0.109498 0.218274
2010-12-14 07:43:10 51°13.66 2°55.96 12.4267 0.019812 0.109498 0.218274
2010-12-14 07:43:15 51°13.66 2°55.96 12.4259 0.019812 0.109497 0.218274
2010-12-14 07:43:20 51°13.66 2°55.96 12.427 0.019812 0.109497 0.218274
2010-12-14 07:43:25 51°13.66 2°55.96 12.4264 0.019812 0.109497 0.218274
2010-12-14 07:43:30 51°13.66 2°55.96 12.4304 0.019812 0.109497 0.253098
2010-12-14 07:43:34 51°13.66 2°55.96 12.4299 0.019708 0.108931 0.218274
2010-12-14 07:43:40 51°13.66 2°55.96 12.4318 0.019812 0.109497 0.218274
2010-12-14 07:43:45 51°13.66 2°55.96 12.4374 0.019812 0.109497 0.218274
2010-12-14 07:43:50 51°13.66 2°55.96 12.4375 0.019812 0.109497 0.218274
2010-12-14 07:43:54 51°13.66 2°55.96 12.4383 0.019812 0.109498 0.218274
2010-12-14 07:43:59 51°13.66 2°55.96 12.4402 0.019812 0.109498 0.218274
2010-12-14 07:44:05 51°13.66 2°55.961 12.4405 0.019708 0.108933 0.218274
2010-12-14 07:44:10 51°13.66 2°55.961 12.4417 0.019812 0.109497 0.218274
2010-12-14 07:44:15 51°13.66 2°55.96 12.4396 0.019812 0.109497 0.218274
2010-12-14 07:44:20 51°13.66 2°55.96 12.4391 0.019708 0.108933 0.218274
2010-12-14 07:44:25 51°13.66 2°55.96 12.4406 0.019708 0.108931 0.218274
2010-12-14 07:44:30 51°13.66 2°55.96 12.4422 0.019812 0.109498 0.218274
2010-12-14 07:44:34 51°13.66 2°55.96 12.4421 0.019708 0.108934 0.218274
2010-12-14 07:44:40 51°13.661 2°55.96 12.4423 0.019812 0.109498 0.218274
2010-12-14 07:44:45 51°13.661 2°55.96 12.4409 0.019812 0.109498 0.218274
2010-12-14 07:44:50 51°13.661 2°55.96 12.4341 0.019708 0.108933 0.218274
2010-12-14 07:44:55 51°13.661 2°55.96 12.4304 0.019708 0.108933 0.253098
2010-12-14 07:45:00 51°13.661 2°55.96 12.4279 0.019812 0.109498 0.218274
2010-12-14 07:45:05 51°13.661 2°55.96 12.4312 0.019708 0.108933 0.253098
2010-12-14 07:45:10 51°13.661 2°55.96 12.421 0.019812 0.109498 0.253098
2010-12-14 07:45:15 51°13.661 2°55.96 12.4234 0.019708 0.108933 0.218274
2010-12-14 07:45:20 51°13.661 2°55.96 12.4248 0.019708 0.108933 0.218274
2010-12-14 07:45:25 51°13.661 2°55.96 12.4297 0.019812 0.109498 0.253098
2010-12-14 07:45:30 51°13.661 2°55.96 12.425 0.019708 0.108933 0.218274
2010-12-14 07:45:34 51°13.661 2°55.96 12.4214 0.019708 0.108934 0.253098
2010-12-14 07:45:40 51°13.661 2°55.96 12.4235 0.019708 0.108934 0.218274
2010-12-14 07:45:45 51°13.661 2°55.96 12.4205 0.019708 0.108934 0.218274
2010-12-14 07:45:50 51°13.661 2°55.96 12.4211 0.019708 0.108934 0.218274
2010-12-14 07:45:55 51°13.661 2°55.96 12.4235 0.019708 0.108934 0.253098
2010-12-14 07:46:00 51°13.661 2°55.96 12.422 0.019708 0.108933 0.253098
2010-12-14 07:46:05 51°13.661 2°55.96 12.4259 0.019708 0.108934 0.253098
2010-12-14 07:46:10 51°13.661 2°55.96 12.4259 0.019708 0.108934 0.218274
2010-12-14 07:46:14 51°13.661 2°55.96 12.4279 0.019708 0.108934 0.218274
2010-12-14 07:46:19 51°13.661 2°55.96 12.4261 0.019708 0.108936 0.253098
2010-12-14 07:46:25 51°13.662 2°55.96 12.4289 0.019708 0.108936 0.253098
2010-12-14 07:46:30 51°13.662 2°55.96 12.4312 0.019708 0.108936 0.218274
2010-12-14 07:46:35 51°13.662 2°55.96 12.433 0.019708 0.108936 0.218274
2010-12-14 07:46:39 51°13.662 2°55.96 12.4362 0.019708 0.108936 0.218274
2010-12-14 07:46:45 51°13.662 2°55.96 12.4338 0.019708 0.108936 0.218274
2010-12-14 07:46:50 51°13.662 2°55.96 12.4363 0.019708 0.108936 0.253098
2010-12-14 07:46:55 51°13.662 2°55.96 12.4366 0.019708 0.108936 0.218274
2010-12-14 07:47:00 51°13.662 2°55.96 12.4345 0.019708 0.108937 0.218274
2010-12-14 07:47:05 51°13.662 2°55.96 12.4348 0.019708 0.108937 0.218274
2010-12-14 07:47:10 51°13.662 2°55.96 12.4318 0.019708 0.108937 0.218274
2010-12-14 07:47:15 51°13.662 2°55.96 12.4284 0.019708 0.108937 0.218274
2010-12-14 07:47:19 51°13.662 2°55.96 12.428 0.019708 0.108939 0.218274
2010-12-14 07:47:25 51°13.662 2°55.961 12.4283 0.019708 0.108939 0.218274
2010-12-14 07:47:30 51°13.662 2°55.961 12.4283 0.019708 0.108937 0.218274
2010-12-14 07:47:35 51°13.662 2°55.961 12.4294 0.019708 0.108939 0.218274
2010-12-14 07:47:40 51°13.662 2°55.961 12.4294 0.019708 0.108939 0.218274
2010-12-14 07:47:45 51°13.662 2°55.961 12.4306 0.019708 0.108939 0.218274
2010-12-14 07:47:50 51°13.662 2°55.961 12.4287 0.019708 0.108941 0.218274
2010-12-14 07:47:55 51°13.662 2°55.961 12.4268 0.019708 0.108939 0.218274
2010-12-14 07:48:00 51°13.662 2°55.961 12.4251 0.019708 0.108941 0.218274
2010-12-14 07:48:05 51°13.663 2°55.961 12.4251 0.019708 0.108941 0.218274
2010-12-14 07:48:10 51°13.663 2°55.961 12.429 0.019708 0.108941 0.18345
2010-12-14 07:48:14 51°13.663 2°55.961 12.4299 0.019708 0.108941 0.18345
2010-12-14 07:48:19 51°13.663 2°55.961 12.4335 0.019708 0.108942 0.253098
2010-12-14 07:48:25 51°13.663 2°55.961 12.4356 0.019708 0.108942 0.253098
2010-12-14 07:48:30 51°13.663 2°55.961 12.4384 0.019708 0.108941 0.218274
2010-12-14 07:48:35 51°13.663 2°55.961 12.4322 0.019708 0.108942 0.218274
2010-12-14 07:48:39 51°13.663 2°55.961 12.432 0.019708 0.108942 0.18345
2010-12-14 07:48:45 51°13.663 2°55.961 12.432 0.019708 0.108941 0.218274
2010-12-14 07:48:50 51°13.663 2°55.961 12.4289 0.019708 0.108941 0.218274
2010-12-14 07:48:55 51°13.663 2°55.961 12.4239 0.019708 0.108942 0.218274
2010-12-14 07:49:00 51°13.663 2°55.961 12.421 0.019708 0.108944 0.253098
2010-12-14 07:49:05 51°13.663 2°55.961 12.4229 0.019708 0.108944 0.218274
2010-12-14 07:49:10 51°13.663 2°55.961 12.4242 0.019708 0.108944 0.218274
2010-12-14 07:49:15 51°13.663 2°55.961 12.4254 0.019708 0.108944 0.218274
2010-12-14 07:49:20 51°13.663 2°55.961 12.4289 0.019708 0.108944 0.218274
2010-12-14 07:49:25 51°13.663 2°55.961 12.4309 0.019708 0.108944 0.218274
2010-12-14 07:49:30 51°13.663 2°55.961 12.4324 0.019708 0.108945 0.253098
2010-12-14 07:49:35 51°13.663 2°55.961 12.4332 0.019708 0.108945 0.253098
2010-12-14 07:49:40 51°13.663 2°55.961 12.4338 0.019708 0.108944 0.253098
2010-12-14 07:49:45 51°13.663 2°55.961 12.4367 0.019708 0.108944 0.253098
2010-12-14 07:49:50 51°13.663 2°55.961 12.4343 0.019708 0.108947 0.218274
2010-12-14 07:49:55 51°13.663 2°55.961 12.4337 0.019708 0.108947 0.218274
2010-12-14 07:50:00 51°13.663 2°55.961 12.4361 0.019708 0.108947 0.218274
2010-12-14 07:50:05 51°13.663 2°55.961 12.438 0.019708 0.108947 0.218274
2010-12-14 07:50:10 51°13.663 2°55.961 12.4404 0.019708 0.108949 0.218274
2010-12-14 07:50:14 51°13.663 2°55.961 12.4435 0.019708 0.108949 0.218274
2010-12-14 07:50:20 51°13.663 2°55.961 12.4403 0.019708 0.108949 0.218274
2010-12-14 07:50:25 51°13.663 2°55.961 12.4417 0.019708 0.108949 0.218274
2010-12-14 07:50:30 51°13.663 2°55.961 12.4425 0.019708 0.108949 0.218274
2010-12-14 07:50:35 51°13.663 2°55.961 12.4457 0.019708 0.10895 0.253098
2010-12-14 07:50:39 51°13.663 2°55.961 12.4418 0.019708 0.10895 0.218274
2010-12-14 07:50:45 51°13.663 2°55.961 12.4421 0.019708 0.10895 0.218274
2010-12-14 07:50:50 51°13.663 2°55.961 12.4423 0.019708 0.10895 0.218274
2010-12-14 07:50:55 51°13.663 2°55.961 12.4435 0.019708 0.10895 0.218274
2010-12-14 07:51:00 51°13.663 2°55.961 12.4431 0.019708 0.10895 0.218274
2010-12-14 07:51:05 51°13.663 2°55.961 12.4387 0.019708 0.108954 0.253098
2010-12-14 07:51:10 51°13.663 2°55.961 12.439 0.019708 0.108952 0.253098
2010-12-14 07:51:15 51°13.663 2°55.961 12.4402 0.019708 0.108954 0.218274
2010-12-14 07:51:20 51°13.663 2°55.961 12.4398 0.019708 0.108954 0.218274
2010-12-14 07:51:25 51°13.663 2°55.961 12.4423 0.019708 0.108955 0.218274
2010-12-14 07:51:30 51°13.663 2°55.961 12.44 0.019708 0.108955 0.218274
2010-12-14 07:51:35 51°13.663 2°55.961 12.4405 0.019708 0.108955 0.218274
2010-12-14 07:51:40 51°13.663 2°55.961 12.4416 0.019708 0.108957 0.218274
2010-12-14 07:51:45 51°13.663 2°55.961 12.4418 0.019708 0.108957 0.218274
2010-12-14 07:51:50 51°13.663 2°55.961 12.4407 0.019708 0.108957 0.218274
2010-12-14 07:51:55 51°13.663 2°55.961 12.438 0.019708 0.108958 0.253098
2010-12-14 07:52:00 51°13.663 2°55.961 12.4369 0.019708 0.108957 0.218274
2010-12-14 07:52:05 51°13.663 2°55.961 12.436 0.019708 0.108958 0.218274
2010-12-14 07:52:10 51°13.663 2°55.96 12.4397 0.019708 0.10896 0.218274
2010-12-14 07:52:14 51°13.663 2°55.96 12.4413 0.019708 0.10896 0.218274
2010-12-14 07:52:20 51°13.663 2°55.96 12.4427 0.019708 0.108958 0.218274
2010-12-14 07:52:25 51°13.663 2°55.96 12.4418 0.019708 0.10896 0.218274
2010-12-14 07:52:30 51°13.663 2°55.96 12.4501 0.019708 0.10896 0.218274
2010-12-14 07:52:35 51°13.663 2°55.96 12.4532 0.019708 0.108962 0.18345
2010-12-14 07:52:39 51°13.663 2°55.96 12.4557 0.019708 0.108963 0.218274
2010-12-14 07:52:45 51°13.663 2°55.96 12.4581 0.019708 0.108963 0.218274
2010-12-14 07:52:50 51°13.663 2°55.96 12.4571 0.019708 0.108963 0.218274
2010-12-14 07:52:55 51°13.663 2°55.96 12.4617 0.019604 0.108397 0.218274
2010-12-14 07:53:00 51°13.663 2°55.96 12.4615 0.019708 0.108963 0.218274
2010-12-14 07:53:06 51°13.663 2°55.96 12.4642 0.019604 0.108401 0.218274
2010-12-14 07:53:11 51°13.663 2°55.96 12.4639 0.019604 0.108401 0.18345
2010-12-14 07:53:17 51°13.663 2°55.96 12.4632 0.019604 0.108401 0.18345
2010-12-14 07:53:22 51°13.662 2°55.96 12.4681 0.019708 0.108968 0.218274
2010-12-14 07:53:28 51°13.662 2°55.96 12.4685 0.019604 0.108401 0.218274
2010-12-14 07:53:33 51°13.662 2°55.96 12.4708 0.019604 0.108401 0.218274
2010-12-14 07:53:38 51°13.662 2°55.96 12.4678 0.019604 0.108402 0.218274
2010-12-14 07:53:43 51°13.662 2°55.96 12.4688 0.019604 0.108404 0.218274
2010-12-14 07:53:48 51°13.662 2°55.96 12.4685 0.019604 0.108404 0.218274
2010-12-14 07:53:53 51°13.662 2°55.96 12.4679 0.019604 0.108404 0.218274
2010-12-14 07:53:58 51°13.662 2°55.96 12.4658 0.019604 0.108404 0.218274
2010-12-14 07:54:03 51°13.662 2°55.96 12.4644 0.019604 0.108405 0.218274
2010-12-14 07:54:08 51°13.662 2°55.96 12.4615 0.019604 0.108407 0.18345
2010-12-14 07:54:13 51°13.662 2°55.959 12.4661 0.019604 0.108409 0.18345
2010-12-14 07:54:18 51°13.662 2°55.96 12.4703 0.019604 0.108407 0.18345
2010-12-14 07:54:23 51°13.662 2°55.96 12.4735 0.019604 0.108407 0.18345
2010-12-14 07:54:28 51°13.662 2°55.96 12.4745 0.019604 0.108409 0.218274
2010-12-14 07:54:33 51°13.662 2°55.96 12.4744 0.019604 0.108412 0.218274
2010-12-14 07:54:38 51°13.662 2°55.96 12.4759 0.019604 0.108412 0.218274
2010-12-14 07:54:43 51°13.662 2°55.96 12.4749 0.019604 0.10841 0.218274
2010-12-14 07:54:49 51°13.662 2°55.96 12.4706 0.019604 0.10841 0.218274
2010-12-14 07:54:53 51°13.662 2°55.96 12.4709 0.019604 0.108412 0.253098
2010-12-14 07:54:58 51°13.662 2°55.96 12.4674 0.019604 0.108412 0.218274
2010-12-14 07:55:03 51°13.662 2°55.961 12.4683 0.019604 0.108413 0.218274
2010-12-14 07:55:08 51°13.662 2°55.961 12.4651 0.019604 0.108413 0.253098
2010-12-14 07:55:13 51°13.662 2°55.961 12.523 0.019604 0.108415 0.218274
2010-12-14 07:55:18 51°13.662 2°55.961 12.5173 0.019604 0.108415 0.218274
2010-12-14 07:55:22 51°13.662 2°55.961 12.5027 0.019604 0.108418 0.218274
2010-12-14 07:55:27 51°13.661 2°55.961 12.5051 0.019708 0.108986 0.253098
2010-12-14 07:55:32 51°13.661 2°55.961 12.4905 0.019604 0.108423 0.253098
2010-12-14 07:55:38 51°13.661 2°55.961 12.4831 0.019604 0.108425 0.253098
2010-12-14 07:55:42 51°13.661 2°55.96 12.4927 0.019604 0.108426 0.253098
2010-12-14 07:55:47 51°13.661 2°55.96 12.4953 0.019604 0.108426 0.253098
2010-12-14 07:55:52 51°13.661 2°55.96 12.4925 0.019604 0.108428 0.218274
2010-12-14 07:55:57 51°13.66 2°55.96 12.5053 0.019604 0.108426 0.218274
2010-12-14 07:56:02 51°13.66 2°55.96 12.5021 0.019604 0.108428 0.218274
2010-12-14 07:56:07 51°13.66 2°55.96 12.4992 0.019604 0.108428 0.218274
2010-12-14 07:56:12 51°13.66 2°55.961 12.4915 0.019604 0.108428 0.218274
2010-12-14 07:56:17 51°13.66 2°55.96 12.4335 0.019604 0.10843 0.18345
2010-12-14 07:56:22 51°13.66 2°55.96 12.4149 0.019604 0.10843 0.18345
2010-12-14 07:56:26 51°13.661 2°55.958 12.332 0.019708 0.108996 0.253098
2010-12-14 07:56:31 51°13.661 2°55.955 12.3423 0.019604 0.108433 0.218274
2010-12-14 07:56:36 51°13.662 2°55.951 12.4021 0.019708 0.108999 0.253098
2010-12-14 07:56:42 51°13.663 2°55.944 12.4262 0.019188 0.106144 0.218274
2010-12-14 07:56:47 51°13.664 2°55.937 12.4583 0.019188 0.106144 0.218274
2010-12-14 07:56:53 51°13.666 2°55.928 12.4637 0.019188 0.106133 0.18345
2010-12-14 07:56:58 51°13.668 2°55.92 12.4363 0.019188 0.106129 0.218274
2010-12-14 07:57:04 51°13.67 2°55.909 12.4405 0.019188 0.106126 0.218274
2010-12-14 07:57:09 51°13.672 2°55.899 12.4919 0.019188 0.106126 0.218274
2010-12-14 07:57:14 51°13.674 2°55.889 12.4683 0.019084 0.105561 0.18345
2010-12-14 07:57:18 51°13.675 2°55.88 12.5061 0.019084 0.105561 0.18345
2010-12-14 07:57:23 51°13.677 2°55.869 12.5415 0.019084 0.105561 0.218274
2010-12-14 07:57:29 51°13.68 2°55.856 12.544 0.019084 0.105563 0.218274
2010-12-14 07:57:34 51°13.682 2°55.846 12.5202 0.019084 0.105568 0.218274
2010-12-14 07:57:38 51°13.683 2°55.838 12.5097 0.019084 0.105566 0.218274
2010-12-14 07:57:43 51°13.685 2°55.828 12.5341 0.019084 0.105566 0.253098
2010-12-14 07:57:49 51°13.687 2°55.816 12.5282 0.019084 0.105568 0.218274
2010-12-14 07:57:54 51°13.688 2°55.807 12.4496 0.019084 0.105568 0.218274
2010-12-14 07:57:58 51°13.689 2°55.8 12.4771 0.019084 0.105568 0.218274
2010-12-14 07:58:03 51°13.69 2°55.79 12.4683 0.019084 0.105568 0.253098
2010-12-14 07:58:08 51°13.691 2°55.781 12.514 0.019084 0.105568 0.218274
2010-12-14 07:58:14 51°13.693 2°55.771 12.518 0.019084 0.105569 0.253098
2010-12-14 07:58:18 51°13.693 2°55.764 12.5415 0.019084 0.105569 0.253098
2010-12-14 07:58:23 51°13.694 2°55.756 12.54 0.019084 0.105569 0.218274
2010-12-14 07:58:28 51°13.695 2°55.748 12.5226 0.019084 0.105572 0.253098
2010-12-14 07:58:34 51°13.696 2°55.742 12.5417 0.019084 0.105572 0.253098
2010-12-14 07:58:38 51°13.696 2°55.74 12.5558 0.019084 0.105575 0.218274
2010-12-14 07:58:43 51°13.696 2°55.738 12.5552 0.01898 0.105009 0.218274
2010-12-14 07:58:48 51°13.697 2°55.738 12.5508 0.01898 0.105009 0.218274
2010-12-14 07:58:53 51°13.697 2°55.738 12.5142 0.01898 0.105009 0.218274
2010-12-14 07:58:58 51°13.698 2°55.739 12.5342 0.01898 0.105012 0.218274
2010-12-14 07:59:03 51°13.698 2°55.74 12.5434 0.01898 0.105014 0.218274
2010-12-14 07:59:08 51°13.699 2°55.742 12.5366 0.01898 0.105014 0.18345
2010-12-14 07:59:13 51°13.7 2°55.745 12.5389 0.01898 0.105017 0.18345
2010-12-14 07:59:18 51°13.702 2°55.748 12.5161 0.01898 0.105017 0.18345
2010-12-14 07:59:23 51°13.703 2°55.75 12.4267 0.01898 0.105018 0.218274
2010-12-14 07:59:28 51°13.705 2°55.752 12.2657 0.01898 0.105018 0.218274
2010-12-14 07:59:33 51°13.705 2°55.752 12.2901 0.01898 0.105017 0.218274
2010-12-14 07:59:38 51°13.705 2°55.752 12.2408 0.01898 0.105004 0.218274
2010-12-14 07:59:42 51°13.705 2°55.751 12.3362 0.01898 0.105006 0.218274
2010-12-14 07:59:48 51°13.703 2°55.75 12.385 0.018876 0.104432 0.218274
2010-12-14 07:59:52 51°13.702 2°55.748 12.4003 0.018876 0.104432 0.218274
2010-12-14 07:59:58 51°13.699 2°55.745 12.402 0.018876 0.10443 0.218274
2010-12-14 08:00:03 51°13.696 2°55.742 12.4568 0.018876 0.104426 0.218274
2010-12-14 08:00:08 51°13.692 2°55.739 12.4618 0.018876 0.104429 0.218274
2010-12-14 08:00:13 51°13.69 2°55.736 12.4751 0.018876 0.104426 0.218274
2010-12-14 08:00:19 51°13.687 2°55.734 12.477 0.018876 0.104426 0.218274
2010-12-14 08:00:24 51°13.685 2°55.733 12.4886 0.018876 0.104426 0.218274
2010-12-14 08:00:29 51°13.684 2°55.732 12.5059 0.018876 0.104426 0.18345
2010-12-14 08:00:34 51°13.684 2°55.731 12.5069 0.018876 0.104426 0.218274
2010-12-14 08:00:39 51°13.684 2°55.731 12.5239 0.018876 0.104427 0.218274
2010-12-14 08:00:44 51°13.686 2°55.731 12.5183 0.018876 0.104429 0.218274
2010-12-14 08:00:49 51°13.687 2°55.73 12.5661 0.018876 0.104429 0.218274
2010-12-14 08:00:53 51°13.689 2°55.729 12.576 0.018876 0.104432 0.218274
2010-12-14 08:00:59 51°13.694 2°55.727 12.5756 0.018876 0.104435 0.218274
2010-12-14 08:01:04 51°13.698 2°55.725 12.5576 0.018772 0.103872 0.218274
2010-12-14 08:01:09 51°13.704 2°55.721 12.519 0.018876 0.104437 0.218274
2010-12-14 08:01:14 51°13.71 2°55.717 12.4936 0.018772 0.103872 0.218274
2010-12-14 08:01:19 51°13.718 2°55.711 12.3759 0.018772 0.103872 0.218274
2010-12-14 08:01:23 51°13.724 2°55.707 12.3623 0.018772 0.103872 0.218274
2010-12-14 08:01:29 51°13.734 2°55.7 12.3489 0.018772 0.103872 0.253098
2010-12-14 08:01:33 51°13.741 2°55.694 12.2776 0.018772 0.103867 0.253098
2010-12-14 08:01:39 51°13.753 2°55.687 12.2838 0.018772 0.103866 0.253098
2010-12-14 08:01:43 51°13.761 2°55.681 12.2492 0.018772 0.103863 0.253098
2010-12-14 08:01:47 51°13.77 2°55.675 12.2172 0.018772 0.103861 0.18345
2010-12-14 08:01:53 51°13.783 2°55.665 12.1971 0.018772 0.103861 0.18345
2010-12-14 08:01:58 51°13.795 2°55.657 12.2176 0.018772 0.10386 0.218274
2010-12-14 08:02:03 51°13.806 2°55.649 12.2962 0.018772 0.103857 0.218274
2010-12-14 08:02:07 51°13.815 2°55.642 12.1897 0.018772 0.103864 0.218274
2010-12-14 08:02:12 51°13.827 2°55.633 12.1276 0.018772 0.103864 0.218274
2010-12-14 08:02:17 51°13.838 2°55.623 12.1602 0.018772 0.103864 0.218274
2010-12-14 08:02:22 51°13.849 2°55.615 12.1316 0.018668 0.103302 0.218274
2010-12-14 08:02:27 51°13.861 2°55.605 12.0921 0.018668 0.103299 0.218274
2010-12-14 08:02:29 51°13.866 2°55.602 12.1555 0.018668 0.103303 0.218274
2010-12-14 08:02:37 51°13.886 2°55.588 12.1221 0.018668 0.103302 0.18345
2010-12-14 08:02:41 51°13.896 2°55.581 12.1336 0.018668 0.103305 0.253098
2010-12-14 08:02:46 51°13.909 2°55.572 12.2407 0.018668 0.103305 0.253098
2010-12-14 08:02:51 51°13.921 2°55.563 12.2506 0.018668 0.103309 0.253098
2010-12-14 08:02:56 51°13.934 2°55.554 12.2684 0.018668 0.103311 0.218274
2010-12-14 08:03:01 51°13.947 2°55.545 12.2634 0.018668 0.103315 0.253098
2010-12-14 08:03:06 51°13.959 2°55.535 12.2641 0.018668 0.103318 0.253098
2010-12-14 08:03:11 51°13.972 2°55.526 12.2738 0.018668 0.10332 0.18345
2010-12-14 08:03:14 51°13.98 2°55.521 12.2765 0.018668 0.10332 0.218274
2010-12-14 08:03:20 51°13.993 2°55.51 12.2275 0.018668 0.10332 0.218274
2010-12-14 08:03:26 51°14.009 2°55.499 12.2666 0.018564 0.10276 0.218274
2010-12-14 08:03:30 51°14.02 2°55.493 12.2947 0.018668 0.103327 0.218274
2010-12-14 08:03:35 51°14.032 2°55.484 12.1992 0.018564 0.102765 0.218274
2010-12-14 08:03:41 51°14.048 2°55.472 12.2344 0.018564 0.102766 0.218274
2010-12-14 08:03:46 51°14.061 2°55.463 12.2516 0.018564 0.102766 0.218274
2010-12-14 08:03:51 51°14.074 2°55.453 12.2459 0.018564 0.102775 0.253098
2010-12-14 08:03:56 51°14.088 2°55.444 12.1923 0.018564 0.102777 0.253098
2010-12-14 08:04:01 51°14.101 2°55.434 12.2426 0.018564 0.10278 0.218274
2010-12-14 08:04:06 51°14.114 2°55.424 12.3275 0.018564 0.102784 0.253098
2010-12-14 08:04:11 51°14.128 2°55.414 12.2186 0.018564 0.102784 0.218274
2010-12-14 08:04:17 51°14.144 2°55.402 12.199 0.018564 0.102784 0.218274
2010-12-14 08:04:23 51°14.16 2°55.389 12.1833 0.018564 0.102787 0.218274
2010-12-14 08:04:28 51°14.174 2°55.379 12.326 0.018564 0.102792 0.218274
2010-12-14 08:04:33 51°14.187 2°55.368 12.139 0.018564 0.102798 0.218274
2010-12-14 08:04:39 51°14.203 2°55.354 12.3456 0.018564 0.102799 0.253098
2010-12-14 08:04:43 51°14.214 2°55.344 12.2804 0.018564 0.102802 0.218274
2010-12-14 08:04:49 51°14.23 2°55.328 12.1915 0.018564 0.102802 0.218274
2010-12-14 08:04:54 51°14.243 2°55.315 12.1824 0.018564 0.102808 0.253098
2010-12-14 08:04:59 51°14.256 2°55.301 12.1417 0.018564 0.102813 0.253098
2010-12-14 08:05:04 51°14.27 2°55.286 12.1769 0.018564 0.102817 0.253098
2010-12-14 08:05:09 51°14.283 2°55.272 12.1614 0.01846 0.10226 0.218274
2010-12-14 08:05:14 51°14.297 2°55.258 12.1122 0.01846 0.102265 0.218274
2010-12-14 08:05:19 51°14.311 2°55.244 12.0106 0.01846 0.102268 0.253098
2010-12-14 08:05:24 51°14.325 2°55.229 12.1686 0.01846 0.102268 0.253098
2010-12-14 08:05:29 51°14.338 2°55.214 12.1578 0.01846 0.102268 0.218274
2010-12-14 08:05:33 51°14.349 2°55.202 12.0887 0.01846 0.102272 0.218274
2010-12-14 08:05:39 51°14.365 2°55.184 11.9914 0.01846 0.102277 0.218274
2010-12-14 08:05:43 51°14.377 2°55.172 12.1282 0.01846 0.102283 0.218274
2010-12-14 08:05:48 51°14.391 2°55.157 12.0266 0.01846 0.102283 0.218274
2010-12-14 08:05:53 51°14.405 2°55.142 11.9899 0.01846 0.102284 0.18345
2010-12-14 08:05:58 51°14.419 2°55.127 12.0262 0.01846 0.102289 0.218274
2010-12-14 08:06:03 51°14.433 2°55.113 12.0081 0.01846 0.102292 0.253098
2010-12-14 08:06:07 51°14.445 2°55.101 12.1483 0.01846 0.102293 0.218274
2010-12-14 08:06:12 51°14.459 2°55.086 11.9641 0.01846 0.102265 0.253098
2010-12-14 08:06:17 51°14.474 2°55.071 12.089 0.01846 0.102265 0.253098
2010-12-14 08:06:23 51°14.491 2°55.053 11.9616 0.01846 0.102302 0.218274
2010-12-14 08:06:28 51°14.505 2°55.038 12.0406 0.01846 0.102311 0.218274
2010-12-14 08:06:33 51°14.519 2°55.023 12.0354 0.01846 0.102323 0.218274
2010-12-14 08:06:38 51°14.532 2°55.006 12.0679 0.01846 0.102356 0.218274
2010-12-14 08:06:43 51°14.546 2°54.99 12.0952 0.01846 0.102371 0.253098
2010-12-14 08:06:47 51°14.557 2°54.978 11.9726 0.01846 0.10238 0.253098
2010-12-14 08:06:52 51°14.57 2°54.963 12.0028 0.01846 0.10238 0.253098
2010-12-14 08:06:57 51°14.584 2°54.948 12.104 0.01846 0.102428 0.253098
2010-12-14 08:07:02 51°14.597 2°54.931 12.0365 0.01846 0.102499 0.253098
2010-12-14 08:07:07 51°14.61 2°54.915 11.9165 0.01846 0.102578 0.253098
2010-12-14 08:07:11 51°14.62 2°54.901 12.0054 0.01846 0.102628 0.253098
2010-12-14 08:07:17 51°14.636 2°54.883 12.0129 0.01846 0.102628 0.253098
2010-12-14 08:07:21 51°14.646 2°54.87 12.0201 0.01846 0.102761 0.218274
2010-12-14 08:07:26 51°14.659 2°54.854 12.0247 0.01846 0.102998 0.218274
2010-12-14 08:07:31 51°14.673 2°54.839 12.0501 0.01846 0.103058 0.218274
2010-12-14 08:07:36 51°14.687 2°54.823 12.0745 0.01846 0.103076 0.253098
2010-12-14 08:07:41 51°14.702 2°54.808 11.8944 0.01846 0.103182 0.253098
2010-12-14 08:07:46 51°14.716 2°54.791 11.9481 0.01846 0.103182 0.253098
2010-12-14 08:07:51 51°14.73 2°54.774 11.9749 0.01846 0.103208 0.218274
2010-12-14 08:07:55 51°14.741 2°54.762 11.9359 0.01846 0.103173 0.218274
2010-12-14 08:08:00 51°14.755 2°54.745 11.8313 0.01846 0.103193 0.218274
2010-12-14 08:08:05 51°14.77 2°54.729 11.9084 0.01846 0.103234 0.218274
2010-12-14 08:08:10 51°14.785 2°54.715 11.9276 0.018668 0.104524 0.218274
2010-12-14 08:08:15 51°14.801 2°54.702 12.0079 0.018668 0.104524 0.218274
2010-12-14 08:08:20 51°14.817 2°54.689 11.9195 0.018772 0.105211 0.218274
2010-12-14 08:08:26 51°14.836 2°54.673 11.8856 0.018564 0.104056 0.218274
2010-12-14 08:08:30 51°14.849 2°54.663 12.0185 0.018564 0.104012 0.218274
2010-12-14 08:08:35 51°14.865 2°54.652 9.8928 0.018564 0.104126 0.218274
2010-12-14 08:08:40 51°14.881 2°54.641 7.8044 0.018876 0.105885 0.218274
2010-12-14 08:08:45 51°14.897 2°54.629 6.5507 0.02418 0.1357 0.044153
2010-12-14 08:08:50 51°14.913 2°54.616 5.7094 0.02418 0.1357 0.044153
2010-12-14 08:08:55 51°14.928 2°54.605 5.5197 0.022724 0.127547 0.078977
2010-12-14 08:08:59 51°14.941 2°54.595 5.216 3.600621 26.963618 0.462042
2010-12-14 08:09:05 51°14.961 2°54.582 5.113 3.830654 30.740855 0.427218
2010-12-14 08:09:10 51°14.977 2°54.574 4.9949 3.826347 31.852604 0.35757
2010-12-14 08:09:15 51°14.994 2°54.567 4.6922 3.70593 32.44548 0.462042
2010-12-14 08:09:19 51°15.008 2°54.563 4.6605 3.70593 32.44548 0.462042
2010-12-14 08:09:25 51°15.029 2°54.556 4.6876 3.329569 30.439257 0.53169
2010-12-14 08:09:30 51°15.046 2°54.55 4.5963 3.232305 30.428693 0.462042
2010-12-14 08:09:35 51°15.063 2°54.544 4.521 3.149066 30.371311 0.462042
2010-12-14 08:09:39 51°15.076 2°54.54 4.5042 3.075319 30.157694 0.462042
2010-12-14 08:09:45 51°15.097 2°54.532 4.4147 3.075319 30.157694 0.462042
2010-12-14 08:09:50 51°15.114 2°54.526 4.4308 3.026546 30.055332 0.496866
2010-12-14 08:09:55 51°15.131 2°54.519 4.3753 2.988204 29.996134 0.496866
2010-12-14 08:09:59 51°15.145 2°54.514 4.348 2.96103 29.954687 0.53169
2010-12-14 08:10:05 51°15.165 2°54.505 4.3557 2.939123 29.91004 0.496866
2010-12-14 08:10:10 51°15.182 2°54.498 4.3125 2.919533 29.79696 0.496866
2010-12-14 08:10:15 51°15.199 2°54.49 4.3176 2.907527 29.767398 0.462042
2010-12-14 08:10:19 51°15.213 2°54.484 4.3313 2.907527 29.767398 0.462042
2010-12-14 08:10:25 51°15.233 2°54.474 4.2961 2.89373 29.703391 0.462042
2010-12-14 08:10:30 51°15.25 2°54.465 4.2774 2.890361 29.744956 0.462042
2010-12-14 08:10:35 51°15.267 2°54.456 4.2737 2.880883 29.712543 0.496866
2010-12-14 08:10:40 51°15.283 2°54.446 4.2546 2.875723 29.70329 0.496866
2010-12-14 08:10:45 51°15.299 2°54.436 4.2459 2.871089 29.690586 0.462042
2010-12-14 08:10:50 51°15.316 2°54.426 4.2614 2.871089 29.690586 0.462042
2010-12-14 08:10:55 51°15.332 2°54.416 4.2757 2.863717 29.630869 0.462042
2010-12-14 08:10:59 51°15.345 2°54.408 4.255 2.862875 29.640129 0.427218
2010-12-14 08:11:05 51°15.365 2°54.395 4.2449 2.860137 29.630896 0.427218
2010-12-14 08:11:11 51°15.385 2°54.383 4.2544 2.860769 29.665705 0.427218
2010-12-14 08:11:15 51°15.398 2°54.375 4.2554 2.860769 29.665705 0.427218
2010-12-14 08:11:19 51°15.412 2°54.367 4.2355 2.856767 29.648334 0.462042
2010-12-14 08:11:25 51°15.432 2°54.355 4.2555 2.854556 29.626969 0.427218
2010-12-14 08:11:30 51°15.448 2°54.345 4.243 2.854345 29.645083 0.427218
2010-12-14 08:11:35 51°15.465 2°54.335 4.2191 2.856557 29.67674 0.462042
2010-12-14 08:11:39 51°15.478 2°54.326 4.2198 2.853608 29.650073 0.462042
2010-12-14 08:11:45 51°15.498 2°54.314 4.2324 2.853608 29.650073 0.462042
2010-12-14 08:11:50 51°15.515 2°54.304 4.2542 2.859295 29.728715 0.427218
2010-12-14 08:11:55 51°15.532 2°54.294 4.1923 2.858664 29.73178 0.462042
2010-12-14 08:11:59 51°15.545 2°54.286 4.187 2.860349 29.755077 0.462042
2010-12-14 08:12:05 51°15.565 2°54.273 4.1973 2.861718 29.780322 0.462042
2010-12-14 08:12:10 51°15.582 2°54.263 4.2094 2.859296 29.758086 0.462042
2010-12-14 08:12:15 51°15.598 2°54.253 4.1908 2.857927 29.751112 0.427218
2010-12-14 08:12:20 51°15.615 2°54.242 4.1823 2.857927 29.751112 0.427218
2010-12-14 08:12:25 51°15.631 2°54.23 4.1656 2.856031 29.733323 0.392394
2010-12-14 08:12:30 51°15.647 2°54.217 4.1686 2.859717 29.774847 0.462042
2010-12-14 08:12:35 51°15.663 2°54.203 4.1659 2.858769 29.778284 0.462042
2010-12-14 08:12:39 51°15.675 2°54.192 4.1671 2.861718 29.828106 0.427218
2010-12-14 08:12:45 51°15.695 2°54.176 4.1601 2.861718 29.828106 0.427218
2010-12-14 08:12:50 51°15.71 2°54.161 4.1927 2.857295 29.783639 0.427218
2010-12-14 08:12:55 51°15.725 2°54.146 4.1805 2.859191 29.809417 0.392394
2010-12-14 08:12:59 51°15.738 2°54.135 4.178 2.86035 29.828323 0.427218
2010-12-14 08:13:05 51°15.756 2°54.117 4.1805 2.858559 29.817309 0.427218
2010-12-14 08:13:10 51°15.772 2°54.102 4.1521 2.857506 29.817966 0.427218
2010-12-14 08:13:15 51°15.786 2°54.087 4.147 2.857506 29.817966 0.427218
2010-12-14 08:13:21 51°15.803 2°54.07 4.1747 2.858349 29.831656 0.427218
2010-12-14 08:13:27 51°15.821 2°54.052 4.1612 2.761257 28.718415 0.427218
2010-12-14 08:13:31 51°15.832 2°54.041 4.1466 2.862983 29.884996 0.427218
2010-12-14 08:13:36 51°15.846 2°54.026 4.1516 2.86372 29.894283 0.392394
2010-12-14 08:13:41 51°15.861 2°54.012 4.1463 2.862983 29.882594 0.392394
2010-12-14 08:13:46 51°15.877 2°53.997 4.1533 2.862983 29.882594 0.392394
2010-12-14 08:13:51 51°15.892 2°53.982 4.1517 2.863088 29.893414 0.392394
2010-12-14 08:13:56 51°15.907 2°53.967 4.1677 2.862246 29.891721 0.35757
2010-12-14 08:14:00 51°15.919 2°53.955 4.1524 2.862456 29.897352 0.392394
2010-12-14 08:14:06 51°15.938 2°53.937 4.1391 2.863404 29.913883 0.392394
2010-12-14 08:14:10 51°15.95 2°53.925 4.1372 2.863615 29.921925 0.427218
2010-12-14 08:14:15 51°15.965 2°53.91 4.1443 2.863615 29.921925 0.427218
2010-12-14 08:14:19 51°15.977 2°53.899 4.1265 2.864773 29.93929 0.392394
2010-12-14 08:14:25 51°15.996 2°53.881 4.1279 2.863931 29.931184 0.392394
2010-12-14 08:14:30 51°16.011 2°53.866 4.1513 2.865511 29.949393 0.392394
2010-12-14 08:14:35 51°16.027 2°53.852 4.1562 2.863088 29.921473 0.35757
2010-12-14 08:14:39 51°16.04 2°53.84 4.1545 2.863826 29.930773 0.427218
2010-12-14 08:14:45 51°16.058 2°53.823 4.1601 2.863826 29.930773 0.427218
2010-12-14 08:14:50 51°16.073 2°53.808 4.1401 2.864773 29.948927 0.392394
2010-12-14 08:14:55 51°16.089 2°53.793 4.1526 2.864142 29.943248 0.427218
2010-12-14 08:14:59 51°16.101 2°53.781 4.1357 2.865827 29.966698 0.427218
2010-12-14 08:15:05 51°16.119 2°53.761 4.1392 2.864563 29.960967 0.392394
2010-12-14 08:15:10 51°16.134 2°53.746 4.1371 2.864247 29.950891 0.392394
2010-12-14 08:15:15 51°16.148 2°53.729 4.1508 2.864247 29.950891 0.392394
2010-12-14 08:15:19 51°16.16 2°53.717 4.1475 2.864563 29.949713 0.392394
2010-12-14 08:15:25 51°16.177 2°53.697 4.1437 2.863088 29.935121 0.392394
2010-12-14 08:15:30 51°16.191 2°53.682 4.1551 2.86372 29.944818 0.427218
2010-12-14 08:15:35 51°16.205 2°53.665 4.1329 2.861509 29.92092 0.427218
2010-12-14 08:15:39 51°16.216 2°53.652 4.1329 2.865932 29.97676 0.462042
2010-12-14 08:15:45 51°16.233 2°53.632 4.1334 2.865932 29.97676 0.462042
2010-12-14 08:15:50 51°16.247 2°53.616 4.1475 2.866353 29.987254 0.392394
2010-12-14 08:15:55 51°16.262 2°53.6 4.1203 2.865932 29.982394 0.427218
2010-12-14 08:16:00 51°16.276 2°53.583 4.1244 2.865511 29.975924 0.392394
2010-12-14 08:16:05 51°16.29 2°53.567 4.1411 2.86509 29.96865 0.427218
2010-12-14 08:16:11 51°16.307 2°53.547 4.1364 2.866775 29.987285 0.427218
2010-12-14 08:16:15 51°16.318 2°53.534 4.1346 2.866775 29.987285 0.427218
2010-12-14 08:16:19 51°16.33 2°53.52 4.1158 2.867933 30.001456 0.392394
2010-12-14 08:16:25 51°16.347 2°53.5 4.1218 2.866669 29.995732 0.427218
2010-12-14 08:16:30 51°16.362 2°53.482 4.1279 2.867301 30.00383 0.392394
2010-12-14 08:16:35 51°16.376 2°53.466 4.1246 2.865511 29.985583 0.392394
2010-12-14 08:16:39 51°16.387 2°53.452 4.1258 2.86846 30.022844 0.392394
2010-12-14 08:16:45 51°16.404 2°53.432 4.1194 2.86846 30.022844 0.392394
2010-12-14 08:16:50 51°16.419 2°53.415 4.1234 2.86509 29.981526 0.392394
2010-12-14 08:16:55 51°16.434 2°53.399 4.1234 2.865827 29.99084 0.35757
2010-12-14 08:16:59 51°16.446 2°53.385 4.1073 2.86688 30.006219 0.392394
2010-12-14 08:17:05 51°16.463 2°53.365 4.1171 2.867091 30.012682 0.35757
2010-12-14 08:17:10 51°16.478 2°53.348 4.1131 2.866564 30.005796 0.35757
2010-12-14 08:17:15 51°16.493 2°53.332 4.1178 2.866564 30.005796 0.35757
2010-12-14 08:17:19 51°16.505 2°53.319 4.1155 2.860456 29.940112 0.35757
2010-12-14 08:17:25 51°16.523 2°53.299 4.1207 2.864879 29.991177 0.35757
2010-12-14 08:17:30 51°16.538 2°53.283 4.1228 2.865616 30.0013 0.35757
2010-12-14 08:17:35 51°16.553 2°53.266 4.1401 2.86846 30.034137 0.35757
2010-12-14 08:17:40 51°16.568 2°53.25 4.1375 2.869303 30.047904 0.392394
2010-12-14 08:17:45 51°16.583 2°53.234 4.1389 2.868144 30.036944 0.392394
2010-12-14 08:17:50 51°16.598 2°53.219 4.147 2.868144 30.036944 0.392394
2010-12-14 08:17:55 51°16.612 2°53.202 4.1494 2.869935 30.057626 0.35757
2010-12-14 08:17:59 51°16.624 2°53.19 4.1561 2.87004 30.062074 0.35757
2010-12-14 08:18:05 51°16.642 2°53.17 4.1565 2.871093 30.071817 0.322746
2010-12-14 08:18:11 51°16.66 2°53.152 4.1663 2.871304 30.071826 0.322746
2010-12-14 08:18:15 51°16.671 2°53.138 4.1784 2.874253 30.101849 0.322746
2010-12-14 08:18:19 51°16.683 2°53.125 4.1863 2.874253 30.101849 0.322746
2010-12-14 08:18:25 51°16.7 2°53.106 4.1833 2.875727 30.116455 0.322746
2010-12-14 08:18:30 51°16.716 2°53.09 4.1907 2.878465 30.14485 0.322746
2010-12-14 08:18:35 51°16.73 2°53.073 4.1957 2.880361 30.1627 0.35757
2010-12-14 08:18:40 51°16.745 2°53.058 4.2109 2.880677 30.160679 0.35757
2010-12-14 08:18:45 51°16.758 2°53.04 4.2169 2.880677 30.160679 0.35757
2010-12-14 08:18:50 51°16.773 2°53.025 4.214 2.882046 30.171632 0.322746
2010-12-14 08:18:55 51°16.786 2°53.008 4.2145 2.882783 30.172855 0.35757
2010-12-14 08:18:59 51°16.798 2°52.995 4.2168 2.884258 30.183399 0.322746
2010-12-14 08:19:05 51°16.816 2°52.977 4.216 2.887101 30.212987 0.322746
2010-12-14 08:19:10 51°16.83 2°52.96 4.2194 2.887628 30.213391 0.35757
2010-12-14 08:19:15 51°16.844 2°52.945 4.2213 2.887628 30.213391 0.35757
2010-12-14 08:19:20 51°16.857 2°52.928 4.2312 2.888049 30.21258 0.322746
2010-12-14 08:19:25 51°16.871 2°52.913 4.2317 2.889839 30.225138 0.322746
2010-12-14 08:19:30 51°16.885 2°52.897 4.2199 2.890471 30.226756 0.322746
2010-12-14 08:19:35 51°16.899 2°52.882 4.2238 2.892894 30.250651 0.35757
2010-12-14 08:19:40 51°16.914 2°52.866 4.2223 2.89321 30.251863 0.322746
2010-12-14 08:19:45 51°16.928 2°52.851 4.2226 2.894052 30.25915 0.35757
2010-12-14 08:19:50 51°16.943 2°52.835 4.2159 2.894052 30.25915 0.35757
2010-12-14 08:19:55 51°16.957 2°52.82 4.222 2.894895 30.265626 0.322746
2010-12-14 08:19:59 51°16.969 2°52.806 4.226 2.693873 27.956834 0.322746
2010-12-14 08:20:05 51°16.987 2°52.788 4.2206 2.896369 30.279389 0.322746
2010-12-14 08:20:11 51°17.005 2°52.769 4.2202 2.896896 30.286275 0.322746
2010-12-14 08:20:15 51°17.017 2°52.757 4.225 2.896896 30.286275 0.322746
2010-12-14 08:20:19 51°17.029 2°52.746 4.2237 2.897422 30.293162 0.35757
2010-12-14 08:20:25 51°17.047 2°52.728 4.2256 2.897633 30.295592 0.35757
2010-12-14 08:20:30 51°17.062 2°52.715 4.2297 2.897949 30.300861 0.35757
2010-12-14 08:20:35 51°17.077 2°52.701 4.2401 2.898265 30.305318 0.322746
2010-12-14 08:20:39 51°17.09 2°52.69 4.2289 2.898686 30.310179 0.287922
2010-12-14 08:20:45 51°17.108 2°52.675 4.234 2.898686 30.310179 0.287922
2010-12-14 08:20:50 51°17.124 2°52.663 4.2383 2.898897 30.314234 0.322746
2010-12-14 08:20:55 51°17.139 2°52.654 4.236 2.899213 30.31788 0.35757
2010-12-14 08:21:00 51°17.156 2°52.646 4.2248 2.899424 30.31706 0.322746
2010-12-14 08:21:05 51°17.172 2°52.638 4.2298 2.899529 30.315838 0.322746
2010-12-14 08:21:10 51°17.189 2°52.632 4.2262 2.900055 30.320289 0.322746
2010-12-14 08:21:15 51°17.206 2°52.626 4.2262 2.900055 30.320289 0.322746
2010-12-14 08:21:20 51°17.224 2°52.621 4.2386 2.900687 30.324329 0.322746
2010-12-14 08:21:25 51°17.241 2°52.616 4.2463 2.900898 30.325134 0.322746
2010-12-14 08:21:30 51°17.258 2°52.611 4.2481 2.901109 30.326751 0.322746
2010-12-14 08:21:35 51°17.276 2°52.607 4.2452 2.901635 30.332826 0.322746
2010-12-14 08:21:39 51°17.29 2°52.604 4.2411 2.902267 30.340928 0.35757
2010-12-14 08:21:45 51°17.31 2°52.6 4.2422 2.902267 30.340928 0.35757
2010-12-14 08:21:50 51°17.328 2°52.597 4.2441 2.902688 30.34904 0.322746
2010-12-14 08:21:55 51°17.345 2°52.594 4.2558 2.902478 30.345797 0.322746
2010-12-14 08:21:59 51°17.359 2°52.591 4.246 2.902688 30.348227 0.322746
2010-12-14 08:22:05 51°17.381 2°52.587 4.2478 2.902583 30.342947 0.322746
2010-12-14 08:22:10 51°17.398 2°52.584 4.2631 2.90311 30.346583 0.35757
2010-12-14 08:22:15 51°17.416 2°52.58 4.26 2.90311 30.346583 0.35757
2010-12-14 08:22:20 51°17.433 2°52.576 4.2524 2.903952 30.354676 0.322746
2010-12-14 08:22:25 51°17.451 2°52.573 4.2574 2.904058 30.35833 0.322746
2010-12-14 08:22:31 51°17.472 2°52.568 4.2632 2.904374 30.361162 0.35757
2010-12-14 08:22:35 51°17.486 2°52.566 4.2628 2.905006 30.365198 0.35757
2010-12-14 08:22:39 51°17.5 2°52.563 4.265 2.905532 30.372086 0.35757
2010-12-14 08:22:45 51°17.522 2°52.559 4.2721 2.905532 30.372086 0.35757
2010-12-14 08:22:51 51°17.542 2°52.557 4.2738 2.906164 30.378562 0.35757
2010-12-14 08:22:55 51°17.556 2°52.557 4.2729 2.906691 30.382195 0.35757
2010-12-14 08:22:59 51°17.57 2°52.557 4.2691 2.907323 30.390298 0.35757
2010-12-14 08:23:05 51°17.59 2°52.557 4.2768 2.907955 30.395146 0.322746
2010-12-14 08:23:10 51°17.608 2°52.556 4.2747 2.908481 30.400406 0.35757
2010-12-14 08:23:15 51°17.625 2°52.557 4.275 2.908692 30.396324 0.392394
2010-12-14 08:23:19 51°17.639 2°52.558 4.2795 2.908692 30.396324 0.392394
2010-12-14 08:23:25 51°17.66 2°52.558 4.2806 2.909534 30.402785 0.35757
2010-12-14 08:23:30 51°17.677 2°52.56 4.2856 2.90985 30.404801 0.322746
2010-12-14 08:23:35 51°17.694 2°52.561 4.2928 2.911851 30.423806 0.35757
2010-12-14 08:23:39 51°17.708 2°52.562 4.2859 2.912273 30.427849 0.35757
2010-12-14 08:23:45 51°17.729 2°52.563 4.2804 2.912273 30.427849 0.35757
2010-12-14 08:23:50 51°17.746 2°52.565 4.289 2.912799 30.433107 0.35757
2010-12-14 08:23:55 51°17.763 2°52.566 4.2896 2.913431 30.438765 0.35757
2010-12-14 08:23:59 51°17.776 2°52.567 4.2804 2.913747 30.441593 0.322746
2010-12-14 08:24:05 51°17.797 2°52.569 4.2794 2.914274 30.446851 0.322746
2010-12-14 08:24:10 51°17.813 2°52.57 4.2812 2.915011 30.452092 0.35757
2010-12-14 08:24:15 51°17.83 2°52.572 4.2818 2.915011 30.452092 0.35757
2010-12-14 08:24:20 51°17.847 2°52.572 4.2811 2.915117 30.453306 0.322746
2010-12-14 08:24:25 51°17.864 2°52.574 4.286 2.915538 30.457349 0.322746
2010-12-14 08:24:30 51°17.881 2°52.574 4.2881 2.915748 30.459777 0.287922
2010-12-14 08:24:35 51°17.898 2°52.575 4.2809 2.91617 30.463005 0.322746
2010-12-14 08:24:40 51°17.915 2°52.575 4.2831 2.916802 30.472736 0.322746
2010-12-14 08:24:45 51°17.933 2°52.576 4.2837 2.916802 30.472736 0.322746
2010-12-14 08:24:50 51°17.95 2°52.576 4.2859 2.917223 30.480857 0.35757
2010-12-14 08:24:55 51°17.968 2°52.577 4.289 2.917539 30.483685 0.322746
2010-12-14 08:25:00 51°17.985 2°52.577 4.2918 2.917434 30.48247 0.35757
2010-12-14 08:25:05 51°18.003 2°52.577 4.2916 2.91796 30.489359 0.322746
2010-12-14 08:25:10 51°18.021 2°52.578 4.2901 2.918908 30.501107 0.322746
2010-12-14 08:25:15 51°18.038 2°52.577 4.2941 2.919014 30.499057 0.322746
2010-12-14 08:25:20 51°18.056 2°52.578 4.2956 2.919014 30.499057 0.322746
2010-12-14 08:25:25 51°18.074 2°52.578 4.295 2.920067 30.51202 0.322746
2010-12-14 08:25:30 51°18.091 2°52.578 4.2992 2.920594 30.51646 0.35757
2010-12-14 08:25:35 51°18.109 2°52.578 4.2978 2.921015 30.522953 0.322746
2010-12-14 08:25:39 51°18.123 2°52.579 4.3022 2.921436 30.523728 0.322746
2010-12-14 08:25:45 51°18.144 2°52.578 4.3078 2.921436 30.523728 0.322746
2010-12-14 08:25:50 51°18.162 2°52.579 4.3005 2.921752 30.527372 0.322746
2010-12-14 08:25:55 51°18.179 2°52.579 4.3017 2.922489 30.536691 0.322746
2010-12-14 08:25:59 51°18.193 2°52.58 4.3084 2.9227 30.53667 0.322746
2010-12-14 08:26:05 51°18.213 2°52.579 4.311 2.923648 30.545967 0.35757
2010-12-14 08:26:10 51°18.231 2°52.579 4.3068 2.924701 30.55321 0.287922
2010-12-14 08:26:15 51°18.248 2°52.579 4.3076 2.924701 30.55321 0.287922
2010-12-14 08:26:19 51°18.263 2°52.579 4.3058 2.925333 30.562132 0.322746
2010-12-14 08:26:25 51°18.284 2°52.578 4.3089 2.925228 30.559282 0.287922
2010-12-14 08:26:30 51°18.302 2°52.578 4.3064 2.926281 30.569792 0.322746
2010-12-14 08:26:35 51°18.32 2°52.578 4.3112 2.926597 30.574254 0.322746
2010-12-14 08:26:39 51°18.334 2°52.578 4.3102 2.927124 30.577873 0.322746
2010-12-14 08:26:45 51°18.356 2°52.578 4.3133 2.927124 30.577873 0.322746
2010-12-14 08:26:50 51°18.373 2°52.577 4.3165 2.927334 30.578667 0.322746
2010-12-14 08:26:55 51°18.392 2°52.577 4.3207 2.927334 30.580302 0.35757
2010-12-14 08:26:59 51°18.406 2°52.577 4.3176 2.928072 30.587168 0.35757
2010-12-14 08:27:05 51°18.427 2°52.576 4.3231 2.928704 30.595273 0.322746
2010-12-14 08:27:11 51°18.449 2°52.577 4.3268 2.930073 30.611882 0.322746
2010-12-14 08:27:15 51°18.463 2°52.577 4.3253 2.930073 30.611882 0.322746
2010-12-14 08:27:19 51°18.477 2°52.577 4.3241 2.929862 30.607816 0.322746
2010-12-14 08:27:25 51°18.498 2°52.577 4.3301 2.930284 30.610218 0.322746
2010-12-14 08:27:30 51°18.515 2°52.577 4.3321 2.930389 30.608159 0.322746
2010-12-14 08:27:35 51°18.533 2°52.577 4.3315 2.931232 30.617056 0.287922
2010-12-14 08:27:39 51°18.547 2°52.576 4.3327 2.931126 30.613386 0.322746
2010-12-14 08:27:45 51°18.567 2°52.576 4.3437 2.931126 30.613386 0.322746
2010-12-14 08:27:50 51°18.585 2°52.575 4.3394 2.931863 30.621068 0.322746
2010-12-14 08:27:55 51°18.601 2°52.575 4.342 2.931758 30.618216 0.322746
2010-12-14 08:28:00 51°18.618 2°52.574 4.3453 2.933549 30.636403 0.35757
2010-12-14 08:28:05 51°18.635 2°52.574 4.3456 2.933549 30.636403 0.322746
2010-12-14 08:28:10 51°18.653 2°52.574 4.3383 2.934075 30.640836 0.35757
2010-12-14 08:28:15 51°18.67 2°52.573 4.3408 2.934075 30.640836 0.35757
2010-12-14 08:28:20 51°18.687 2°52.572 4.3411 2.935129 30.649702 0.35757
2010-12-14 08:28:26 51°18.708 2°52.571 4.3478 2.935761 30.653711 0.322746
2010-12-14 08:28:30 51°18.722 2°52.571 4.3419 2.936182 30.657748 0.322746
2010-12-14 08:28:35 51°18.74 2°52.57 4.3415 2.936603 30.660146 0.322746
2010-12-14 08:28:40 51°18.758 2°52.571 4.3466 2.936603 30.65687 0.322746
2010-12-14 08:28:45 51°18.775 2°52.57 4.3429 2.936603 30.65687 0.322746
2010-12-14 08:28:50 51°18.792 2°52.571 4.3496 2.937024 30.663364 0.35757
2010-12-14 08:28:55 51°18.809 2°52.57 4.3457 2.937235 30.663334 0.35757
2010-12-14 08:29:00 51°18.827 2°52.569 4.3424 2.938078 30.673865 0.322746
2010-12-14 08:29:05 51°18.844 2°52.569 4.337 2.937972 30.67347 0.35757
2010-12-14 08:29:10 51°18.861 2°52.568 4.337 2.938815 30.682363 0.322746
2010-12-14 08:29:15 51°18.879 2°52.568 4.3361 2.938815 30.682363 0.322746
2010-12-14 08:29:20 51°18.897 2°52.567 4.3349 2.938394 30.675048 0.35757
2010-12-14 08:29:25 51°18.914 2°52.566 4.3423 2.93892 30.681937 0.322746
2010-12-14 08:29:30 51°18.932 2°52.566 4.3363 2.938815 30.679084 0.322746
2010-12-14 08:29:35 51°18.95 2°52.565 4.3433 2.939131 30.684365 0.322746
2010-12-14 08:29:39 51°18.964 2°52.564 4.3405 2.939236 30.686399 0.322746
2010-12-14 08:29:45 51°18.986 2°52.563 4.3441 2.939236 30.686399 0.322746
2010-12-14 08:29:50 51°19.003 2°52.563 4.3476 2.939552 30.694962 0.322746
2010-12-14 08:29:55 51°19.021 2°52.562 4.3465 2.939236 30.690499 0.322746
2010-12-14 08:29:59 51°19.035 2°52.562 4.3526 2.939131 30.690105 0.287922
2010-12-14 08:30:05 51°19.056 2°52.561 4.352 2.939131 30.690925 0.287922
2010-12-14 08:30:10 51°19.074 2°52.56 4.3565 2.940079 30.702674 0.322746
2010-12-14 08:30:15 51°19.091 2°52.559 4.359 2.939658 30.694536 0.322746
2010-12-14 08:30:19 51°19.105 2°52.558 4.3621 2.939658 30.694536 0.322746
2010-12-14 08:30:25 51°19.126 2°52.557 4.3583 2.94029 30.701821 0.322746
2010-12-14 08:30:30 51°19.144 2°52.556 4.3628 2.941132 30.708253 0.322746
2010-12-14 08:30:35 51°19.161 2°52.555 4.3671 2.941343 30.70986 0.287922
2010-12-14 08:30:39 51°19.176 2°52.554 4.3761 2.94208 30.715898 0.322746
2010-12-14 08:30:45 51°19.197 2°52.554 4.3736 2.94208 30.715898 0.322746
2010-12-14 08:30:50 51°19.215 2°52.553 4.3744 2.942396 30.718719 0.322746
2010-12-14 08:30:55 51°19.233 2°52.553 4.3821 2.942712 30.7199 0.287922
2010-12-14 08:30:59 51°19.247 2°52.552 4.3814 2.943976 30.731184 0.287922
2010-12-14 08:31:05 51°19.268 2°52.552 4.389 2.944819 30.739254 0.322746
2010-12-14 08:31:10 51°19.285 2°52.552 4.3892 2.945556 30.747752 0.287922
2010-12-14 08:31:15 51°19.303 2°52.552 4.3899 2.945556 30.747752 0.287922
2010-12-14 08:31:19 51°19.317 2°52.551 4.3932 2.946188 30.749287 0.287922
2010-12-14 08:31:25 51°19.338 2°52.55 4.3884 2.947136 30.757747 0.322746
2010-12-14 08:31:31 51°19.359 2°52.549 4.3921 2.948084 30.765386 0.322746
2010-12-14 08:31:35 51°19.373 2°52.549 4.3945 2.948927 30.773452 0.287922
2010-12-14 08:31:39 51°19.388 2°52.548 4.3966 2.950296 30.783478 0.322746
2010-12-14 08:31:45 51°19.409 2°52.548 4.401 2.950296 30.783478 0.322746
2010-12-14 08:31:50 51°19.427 2°52.547 4.4009 2.951139 30.791542 0.287922
2010-12-14 08:31:55 51°19.446 2°52.546 4.4002 2.952087 30.799998 0.287922
2010-12-14 08:31:59 51°19.46 2°52.546 4.4036 2.953245 30.81088 0.287922
2010-12-14 08:32:05 51°19.481 2°52.545 4.4075 2.954299 30.823014 0.287922
2010-12-14 08:32:11 51°19.502 2°52.543 4.4097 2.954931 30.829473 0.253098
2010-12-14 08:32:15 51°19.516 2°52.542 4.4106 2.955879 30.837926 0.322746
2010-12-14 08:32:20 51°19.533 2°52.542 4.4102 2.955879 30.837926 0.322746
2010-12-14 08:32:25 51°19.55 2°52.541 4.4127 2.9563 30.840311 0.287922
2010-12-14 08:32:30 51°19.568 2°52.541 4.4131 2.957564 30.852403 0.287922
2010-12-14 08:32:35 51°19.585 2°52.54 4.4135 2.958723 30.864927 0.287922
2010-12-14 08:32:40 51°19.603 2°52.539 4.4165 2.959355 30.869737 0.253098
2010-12-14 08:32:45 51°19.619 2°52.539 4.4233 2.959987 30.876194 0.253098
2010-12-14 08:32:50 51°19.637 2°52.537 4.4261 2.959987 30.876194 0.253098
2010-12-14 08:32:55 51°19.653 2°52.536 4.4278 2.960619 30.879356 0.287922
2010-12-14 08:32:59 51°19.667 2°52.535 4.4276 2.960619 30.876062 0.287922
2010-12-14 08:33:05 51°19.688 2°52.535 4.4346 2.961567 30.886981 0.253098
2010-12-14 08:33:10 51°19.706 2°52.534 4.4336 2.961988 30.891833 0.253098
2010-12-14 08:33:15 51°19.723 2°52.533 4.4365 2.961988 30.891833 0.253098
2010-12-14 08:33:19 51°19.737 2°52.533 4.4402 2.962725 30.89703 0.287922
2010-12-14 08:33:25 51°19.758 2°52.532 4.445 2.962725 30.896206 0.253098
2010-12-14 08:33:31 51°19.779 2°52.531 4.4445 2.963673 30.901357 0.253098
2010-12-14 08:33:35 51°19.792 2°52.53 4.448 2.963884 30.901312 0.287922
2010-12-14 08:33:39 51°19.806 2°52.53 4.4478 2.964621 30.908154 0.253098
2010-12-14 08:33:46 51°19.83 2°52.529 4.4554 2.965569 30.915773 0.253098
2010-12-14 08:33:51 51°19.847 2°52.529 4.4587 2.965569 30.915773 0.253098
2010-12-14 08:33:55 51°19.86 2°52.528 4.4591 2.966517 30.924215 0.218274
2010-12-14 08:34:00 51°19.876 2°52.528 4.4621 2.967044 30.926982 0.253098
2010-12-14 08:34:05 51°19.893 2°52.527 4.461 2.967465 30.929361 0.287922
2010-12-14 08:34:10 51°19.91 2°52.527 4.4599 2.968308 30.937412 0.218274
2010-12-14 08:34:15 51°19.927 2°52.526 4.4614 2.969361 30.945416 0.218274
2010-12-14 08:34:20 51°19.945 2°52.525 4.4621 2.969361 30.945416 0.218274
2010-12-14 08:34:25 51°19.963 2°52.524 4.4621 2.969782 30.947792 0.253098
2010-12-14 08:34:30 51°19.98 2°52.522 4.469 2.97052 30.952981 0.253098
2010-12-14 08:34:35 51°19.998 2°52.521 4.4626 2.970836 30.954144 0.253098
2010-12-14 08:34:39 51°20.012 2°52.521 4.467 2.971573 30.960156 0.253098
2010-12-14 08:34:45 51°20.032 2°52.519 4.4696 2.971573 30.960156 0.253098
2010-12-14 08:34:50 51°20.05 2°52.518 4.4705 2.971994 30.96418 0.218274
2010-12-14 08:34:55 51°20.068 2°52.518 4.4704 2.972837 30.973877 0.218274
2010-12-14 08:34:59 51°20.082 2°52.517 4.4718 2.973153 30.97504 0.218274
2010-12-14 08:35:05 51°20.103 2°52.516 4.4724 2.97368 30.980275 0.218274
2010-12-14 08:35:10 51°20.12 2°52.516 4.4763 2.974312 30.985073 0.218274
2010-12-14 08:35:15 51°20.138 2°52.515 4.4767 2.974312 30.985073 0.218274
2010-12-14 08:35:20 51°20.156 2°52.514 4.4758 2.974944 30.99152 0.218274
2010-12-14 08:35:25 51°20.174 2°52.513 4.4763 2.975155 30.993119 0.218274
2010-12-14 08:35:30 51°20.191 2°52.512 4.4746 2.975471 30.99428 0.218274
2010-12-14 08:35:35 51°20.209 2°52.512 4.4796 2.975997 31.00034 0.218274
2010-12-14 08:35:39 51°20.223 2°52.51 4.4809 2.976945 31.011248 0.218274
2010-12-14 08:35:45 51°20.244 2°52.51 4.4832 2.977156 31.011195 0.218274
2010-12-14 08:35:51 51°20.266 2°52.509 4.4851 2.977156 31.011195 0.218274
2010-12-14 08:35:55 51°20.28 2°52.508 4.4885 2.977893 31.018028 0.218274
2010-12-14 08:35:59 51°20.294 2°52.508 4.4875 2.978525 31.024474 0.218274
2010-12-14 08:36:05 51°20.315 2°52.507 4.4903 2.979052 31.030533 0.218274
2010-12-14 08:36:10 51°20.333 2°52.506 4.4926 2.979579 31.035767 0.218274
2010-12-14 08:36:15 51°20.35 2°52.505 4.4983 2.979579 31.035767 0.218274
2010-12-14 08:36:19 51°20.364 2°52.504 4.4918 2.980421 31.042985 0.18345
2010-12-14 08:36:25 51°20.384 2°52.503 4.5032 2.980948 31.048218 0.218274
2010-12-14 08:36:31 51°20.405 2°52.502 4.5031 2.981475 31.051799 0.218274
2010-12-14 08:36:35 51°20.419 2°52.502 4.4994 2.981896 31.054994 0.18345
2010-12-14 08:36:40 51°20.436 2°52.5 4.5023 2.982633 31.063476 0.18345
2010-12-14 08:36:45 51°20.454 2°52.499 4.5035 2.982633 31.063476 0.18345
2010-12-14 08:36:50 51°20.472 2°52.498 4.5089 2.983687 31.071462 0.18345
2010-12-14 08:36:55 51°20.489 2°52.497 4.5136 2.984319 31.075426 0.18345
2010-12-14 08:37:00 51°20.507 2°52.496 4.5137 2.984951 31.082696 0.218274
2010-12-14 08:37:05 51°20.525 2°52.495 4.5137 2.986426 31.098006 0.218274
2010-12-14 08:37:10 51°20.543 2°52.494 4.5197 2.986742 31.099159 0.18345
2010-12-14 08:37:15 51°20.559 2°52.493 4.523 2.986742 31.099159 0.18345
2010-12-14 08:37:20 51°20.576 2°52.492 4.5259 2.988638 31.119315 0.218274
2010-12-14 08:37:25 51°20.593 2°52.491 4.5307 2.989164 31.124545 0.18345
2010-12-14 08:37:30 51°20.61 2°52.49 4.533 2.990534 31.138642 0.218274
2010-12-14 08:37:35 51°20.627 2°52.489 4.5316 2.991482 31.147063 0.18345
2010-12-14 08:37:39 51°20.641 2°52.488 4.5344 2.992641 31.156249 0.18345
2010-12-14 08:37:45 51°20.661 2°52.487 4.5361 2.993062 31.156126 0.18345
2010-12-14 08:37:50 51°20.679 2°52.485 4.5389 2.993062 31.156126 0.18345
2010-12-14 08:37:55 51°20.697 2°52.485 4.5385 2.994747 31.175509 0.18345
2010-12-14 08:37:59 51°20.711 2°52.484 4.5413 2.995485 31.179017 0.148626
2010-12-14 08:38:05 51°20.732 2°52.483 4.5391 2.996433 31.186604 0.18345
2010-12-14 08:38:11 51°20.754 2°52.482 4.5417 2.996959 31.191003 0.18345
2010-12-14 08:38:15 51°20.768 2°52.482 4.5415 2.996959 31.191003 0.18345
2010-12-14 08:38:19 51°20.782 2°52.481 4.5413 2.997802 31.198206 0.148626
2010-12-14 08:38:25 51°20.804 2°52.481 4.5441 2.998961 31.209042 0.18345
2010-12-14 08:38:30 51°20.822 2°52.48 4.5497 2.999066 31.206108 0.148626
2010-12-14 08:38:35 51°20.839 2°52.479 4.5455 3.00033 31.219811 0.18345
2010-12-14 08:38:40 51°20.857 2°52.478 4.5469 3.000962 31.22459 0.18345
2010-12-14 08:38:45 51°20.875 2°52.477 4.5512 3.000962 31.22459 0.18345
2010-12-14 08:38:51 51°20.896 2°52.476 4.5478 3.001805 31.234278 0.18345
2010-12-14 08:38:55 51°20.911 2°52.476 4.55 3.002121 31.238741 0.18345
2010-12-14 08:38:59 51°20.925 2°52.475 4.5511 3.002964 31.24677 0.148626
2010-12-14 08:39:05 51°20.947 2°52.474 4.5495 3.002542 31.240266 0.148626
2010-12-14 08:39:10 51°20.965 2°52.473 4.5495 3.003596 31.251547 0.148626
2010-12-14 08:39:15 51°20.982 2°52.472 4.5544 3.003596 31.251547 0.148626
2010-12-14 08:39:19 51°20.997 2°52.471 4.5566 3.004228 31.257983 0.18345
2010-12-14 08:39:25 51°21.018 2°52.471 4.5523 3.00328 31.244594 0.148626
2010-12-14 08:39:30 51°21.036 2°52.47 4.5546 3.004017 31.253071 0.148626
2010-12-14 08:39:35 51°21.053 2°52.47 4.5553 3.004228 31.253833 0.18345
2010-12-14 08:39:39 51°21.068 2°52.469 4.5566 3.006124 31.274799 0.18345
2010-12-14 08:39:45 51°21.089 2°52.468 4.5603 3.006124 31.274799 0.18345
2010-12-14 08:39:50 51°21.107 2°52.467 4.5633 3.00644 31.279263 0.148626
2010-12-14 08:39:55 51°21.125 2°52.466 4.5659 3.006967 31.282826 0.18345
2010-12-14 08:39:59 51°21.14 2°52.465 4.5683 3.007283 31.285628 0.18345
2010-12-14 08:40:05 51°21.161 2°52.464 4.5745 3.00802 31.292443 0.148626
2010-12-14 08:40:10 51°21.179 2°52.462 4.5776 3.008126 31.293654 0.148626
2010-12-14 08:40:15 51°21.197 2°52.462 4.5799 3.008126 31.293654 0.148626
2010-12-14 08:40:20 51°21.214 2°52.461 4.5837 3.009284 31.306144 0.148626
2010-12-14 08:40:25 51°21.232 2°52.459 4.5832 3.009706 31.310157 0.18345
2010-12-14 08:40:30 51°21.249 2°52.459 4.5876 3.010654 31.31773 0.148626
2010-12-14 08:40:35 51°21.266 2°52.458 4.5944 3.012023 31.331809 0.148626
2010-12-14 08:40:40 51°21.284 2°52.457 4.6019 3.013182 31.341801 0.148626
2010-12-14 08:40:45 51°21.301 2°52.457 4.6124 3.013182 31.341801 0.148626
2010-12-14 08:40:51 51°21.323 2°52.456 4.6202 3.013919 31.346118 0.18345
2010-12-14 08:40:55 51°21.337 2°52.456 4.6283 3.015184 31.356486 0.148626
2010-12-14 08:41:00 51°21.355 2°52.455 4.6342 3.016553 31.368896 0.148626
2010-12-14 08:41:05 51°21.373 2°52.454 4.6393 3.017817 31.381759 0.148626
2010-12-14 08:41:10 51°21.391 2°52.453 4.6433 3.019503 31.396965 0.18345
2010-12-14 08:41:15 51°21.409 2°52.452 4.6474 3.020978 31.411414 0.148626
2010-12-14 08:41:20 51°21.426 2°52.451 4.6514 3.020978 31.411414 0.148626
2010-12-14 08:41:25 51°21.444 2°52.45 4.6538 3.022979 31.425247 0.18345
2010-12-14 08:41:30 51°21.463 2°52.449 4.6537 3.025191 31.443995 0.148626
2010-12-14 08:41:35 51°21.48 2°52.448 4.6586 3.026771 31.454644 0.113802
2010-12-14 08:41:40 51°21.499 2°52.448 4.6584 3.028352 31.463622 0.18345
2010-12-14 08:41:45 51°21.517 2°52.447 4.6595 3.028352 31.463622 0.18345
2010-12-14 08:41:50 51°21.534 2°52.446 4.6623 3.030037 31.476307 0.148626
2010-12-14 08:41:55 51°21.552 2°52.445 4.6641 3.031407 31.487028 0.148626
2010-12-14 08:42:00 51°21.569 2°52.444 4.6646 3.033408 31.504169 0.148626
2010-12-14 08:42:05 51°21.586 2°52.443 4.6693 3.034251 31.508838 0.148626
2010-12-14 08:42:10 51°21.603 2°52.442 4.6707 3.035726 31.523264 0.148626
2010-12-14 08:42:15 51°21.621 2°52.441 4.6757 3.035726 31.523264 0.148626
2010-12-14 08:42:20 51°21.639 2°52.44 4.6777 3.036568 31.530434 0.148626
2010-12-14 08:42:26 51°21.66 2°52.439 4.6835 3.037201 31.535185 0.148626
2010-12-14 08:42:30 51°21.674 2°52.438 4.6883 3.038149 31.543563 0.148626
2010-12-14 08:42:35 51°21.692 2°52.438 4.6895 3.03857 31.54339 0.148626
2010-12-14 08:42:40 51°21.71 2°52.437 4.6946 3.040045 31.560315 0.148626
2010-12-14 08:42:45 51°21.728 2°52.436 4.6992 3.040045 31.560315 0.148626
2010-12-14 08:42:50 51°21.746 2°52.435 4.7047 3.040782 31.567108 0.113802
2010-12-14 08:42:55 51°21.763 2°52.434 4.7066 3.042257 31.580692 0.113802
2010-12-14 08:42:59 51°21.778 2°52.434 4.709 3.043311 31.589438 0.148626
2010-12-14 08:43:05 51°21.799 2°52.433 4.7108 3.044364 31.597348 0.113802
2010-12-14 08:43:11 51°21.821 2°52.432 4.7148 3.045418 31.605256 0.148626
2010-12-14 08:43:15 51°21.835 2°52.431 4.7225 3.045418 31.605256 0.148626
2010-12-14 08:43:19 51°21.849 2°52.43 4.7254 3.046577 31.616044 0.148626
2010-12-14 08:43:25 51°21.871 2°52.429 4.7317 3.047841 31.622186 0.148626
2010-12-14 08:43:30 51°21.889 2°52.429 4.7402 3.049632 31.641057 0.148626
2010-12-14 08:43:35 51°21.907 2°52.428 4.7466 3.050158 31.64208 0.148626
2010-12-14 08:43:39 51°21.921 2°52.428 4.7522 3.051317 31.652025 0.113802
2010-12-14 08:43:45 51°21.942 2°52.428 4.757 3.051317 31.652025 0.113802
2010-12-14 08:43:50 51°21.96 2°52.428 4.7619 3.052055 31.657137 0.113802
2010-12-14 08:43:55 51°21.978 2°52.427 4.7667 3.053003 31.664663 0.113802
2010-12-14 08:43:59 51°21.992 2°52.426 4.7706 3.05374 31.666426 0.113802
2010-12-14 08:44:05 51°22.013 2°52.425 4.7701 3.055215 31.678316 0.113802
2010-12-14 08:44:10 51°22.031 2°52.424 4.7735 3.056058 31.681284 0.148626
2010-12-14 08:44:15 51°22.048 2°52.424 4.7762 3.056058 31.681284 0.148626
2010-12-14 08:44:20 51°22.066 2°52.423 4.7779 3.057954 31.695489 0.148626
2010-12-14 08:44:25 51°22.084 2°52.422 4.778 3.059218 31.704119 0.113802
2010-12-14 08:44:30 51°22.101 2°52.422 4.7802 3.060061 31.707918 0.113802
2010-12-14 08:44:35 51°22.119 2°52.42 4.7816 3.061641 31.721002 0.148626
2010-12-14 08:44:39 51°22.133 2°52.42 4.7863 3.062484 31.725636 0.113802
2010-12-14 08:44:45 51°22.155 2°52.419 4.7888 3.063538 31.734356 0.148626
2010-12-14 08:44:51 51°22.175 2°52.418 4.7927 3.063538 31.734356 0.148626
2010-12-14 08:44:55 51°22.189 2°52.418 4.794 3.06417 31.739085 0.148626
2010-12-14 08:44:59 51°22.203 2°52.418 4.7926 3.064907 31.743346 0.113802
2010-12-14 08:45:05 51°22.224 2°52.417 4.7924 3.065013 31.742878 0.113802
2010-12-14 08:45:10 51°22.242 2°52.417 4.7933 3.065329 31.743986 0.113802
2010-12-14 08:45:15 51°22.26 2°52.416 4.7966 3.065329 31.743986 0.113802
2010-12-14 08:45:19 51°22.275 2°52.416 4.7993 3.067225 31.764028 0.113802
2010-12-14 08:45:25 51°22.296 2°52.415 4.8006 3.067646 31.764667 0.113802
2010-12-14 08:45:30 51°22.315 2°52.414 4.8017 3.068384 31.769761 0.113802
2010-12-14 08:45:35 51°22.333 2°52.414 4.8045 3.068384 31.767249 0.078977
2010-12-14 08:45:39 51°22.347 2°52.413 4.8073 3.069227 31.776061 0.148626
2010-12-14 08:45:45 51°22.368 2°52.412 4.8092 3.069227 31.776061 0.148626